GFSMW_sfc_dewp_000.txt.gz
Dewpoint
43 46 47 47 46 47 47 50 50 51 43 46 46 49 44 43 42 42 45 45 45 45 45 44 45 45 43 42 41 42 42 41 42 40 38 40 40 42 44 46 46 46 44
42 43 44 47 47 45 47 48 46 45 45 48 48 47 44 43 43 46 44 45 46 43 42 43 42 43 41 41 41 42 41 41 42 40 41 34 36 37 41 43 42 44 44
42 42 44 43 41 40 41 41 40 41 45 46 43 44 44 44 44 42 42 43 42 41 40 40 41 41 41 41 40 41 41 41 42 42 41 38 36 39 40 39 36 39 40
43 42 42 42 41 40 39 39 39 39 40 41 41 43 43 41 43 43 41 38 39 40 39 39 41 41 41 40 41 42 42 41 40 41 41 40 38 36 34 36 35 36 36
42 42 42 42 41 41 40 39 39 39 39 39 40 42 39 39 41 41 37 36 38 39 38 39 40 40 40 40 40 41 40 41 40 40 39 38 38 38 36 31 33 34 36
41 42 43 42 41 40 39 37 36 38 39 39 39 41 37 37 38 35 35 35 37 37 38 38 38 37 38 38 39 38 39 38 38 38 38 38 36 35 35 34 34 32 33
41 42 41 41 41 41 39 39 39 38 38 39 39 38 37 37 34 33 34 33 36 37 38 38 38 38 38 37 37 36 36 37 36 36 37 38 37 37 36 35 35 34 33
40 41 41 39 39 41 41 40 38 35 38 37 36 37 38 38 36 35 33 36 37 37 38 38 37 36 36 36 35 35 35 35 35 34 35 35 36 36 35 36 35 32 32
37 39 39 40 40 40 40 39 36 33 35 36 37 37 39 38 39 38 37 39 37 37 36 36 34 34 34 34 35 34 34 33 33 33 33 34 35 35 36 38 35 33 29
38 38 39 39 40 40 39 40 38 35 34 36 38 38 38 38 39 37 37 35 35 36 35 33 32 32 33 33 34 33 33 33 33 33 33 33 34 34 34 35 36 34 33
38 38 38 38 37 35 36 37 37 38 37 36 37 37 36 36 36 36 35 34 34 35 34 32 30 29 29 29 30 31 33 33 31 29 27 26 26 26 27 27 28 32 34
38 38 37 35 34 33 33 31 35 36 36 37 38 38 38 36 34 34 32 33 33 33 32 31 29 26 26 26 27 29 28 25 24 24 24 23 20 21 22 23 23 25 25
37 36 35 33 32 30 28 25 27 26 27 30 34 37 37 38 33 30 31 30 30 28 27 27 24 24 25 25 27 25 24 23 22 22 22 22 21 20 20 21 23 24 23
35 34 33 31 28 25 23 24 26 27 25 24 27 27 29 33 32 30 31 34 34 34 27 23 24 26 25 26 24 22 21 21 21 22 22 22 20 20 22 23 24 24 24
34 33 32 29 22 22 23 23 25 26 26 25 25 32 36 34 33 34 34 36 36 34 24 22 23 24 25 23 22 21 21 20 20 21 20 19 21 22 23 24 29 27 24
33 32 30 22 21 22 21 22 23 25 27 25 30 35 36 36 35 34 35 35 35 24 19 21 23 23 22 27 26 23 20 19 19 19 19 20 21 22 24 25 25 25 25
32 31 25 20 21 20 21 19 21 24 25 26 32 33 35 35 35 36 36 35 25 17 19 21 23 23 23 27 27 26 21 20 20 21 20 20 18 22 24 25 25 24 25
30 27 17 17 19 19 18 20 21 22 25 31 31 33 33 33 34 35 33 31 24 20 21 23 24 24 23 27 29 27 25 23 23 22 22 21 20 20 20 21 25 24 24
25 21 18 18 18 18 19 20 21 22 24 30 31 32 33 32 33 33 34 34 26 19 24 25 24 25 26 28 27 27 23 23 21 21 21 20 21 23 26 25 23 22 21
21 18 18 17 17 17 19 21 22 24 25 31 32 32 33 33 33 33 32 30 20 24 24 24 24 24 22 25 23 22 20 16 20 20 20 21 20 23 25 25 24 21 20
19 20 19 17 18 20 22 23 23 24 26 30 31 32 33 32 32 32 26 20 24 24 24 23 23 22 21 22 21 20 20 19 20 18 19 20 23 23 22 23 24 23 24
18 19 20 20 22 23 24 23 23 25 27 29 29 29 29 27 24 22 22 23 23 22 21 14 17 19 20 18 18 18 19 19 16 19 20 22 21 23 24 24 25 24 24
18 19 19 21 23 24 24 23 24 27 28 28 27 27 26 26 25 22 20 21 21 19 20 21 13 18 19 16 19 19 19 20 20 21 21 19 20 21 23 22 24 23 22
18 19 21 22 24 25 25 26 27 27 27 27 27 26 26 27 25 22 22 21 19 17 21 19 16 14 15 14 16 17 14 19 21 20 20 20 20 19 21 21 22 22 22
21 23 24 25 25 26 28 29 29 29 26 27 27 26 26 25 25 21 22 23 20 20 18 17 16 3 3 12 19 18 16 17 18 15 14 16 16 15 16 16 18 19 21
24 23 25 26 27 28 27 29 30 30 29 27 27 27 25 23 25 25 25 26 25 23 24 22 15 10 16 19 20 18 17 15 17 13 11 9 9 13 14 13 14 16 18

GFSMW_sfc_dewp_003.txt.gz
Dewpoint
43 45 46 47 45 49 50 53 52 51 50 51 50 49 48 47 46 44 45 44 43 42 42 42 42 42 40 39 40 41 40 38 41 38 36 36 34 38 43 45 45 43 42
41 44 44 45 45 46 47 48 48 46 46 48 48 50 48 47 47 44 42 41 41 40 39 41 41 40 39 39 39 39 39 40 42 40 40 36 36 39 39 40 40 40 42
43 44 42 39 38 39 40 40 41 43 44 49 48 44 43 43 41 40 40 38 41 39 39 40 40 40 40 39 39 40 40 39 40 41 39 36 34 37 38 36 37 37 37
41 40 39 38 37 37 37 37 37 38 39 40 40 40 40 39 41 41 36 36 39 38 39 39 39 39 39 39 40 40 39 39 38 39 39 38 37 34 32 34 33 36 35
40 40 40 39 39 39 37 37 38 38 38 38 40 41 39 37 40 37 34 35 38 38 38 37 37 38 38 37 37 37 36 37 36 36 36 36 37 36 34 32 31 33 34
41 41 41 40 39 38 37 36 37 37 38 38 38 39 36 37 34 32 33 34 36 38 38 37 38 37 37 36 35 34 34 34 35 35 36 37 35 34 34 33 31 32 33
41 42 40 39 39 39 39 39 38 38 38 37 37 37 36 33 32 33 34 34 36 37 37 37 37 36 36 35 34 33 33 33 32 32 33 34 33 35 34 33 29 32 30
40 39 39 39 39 38 35 33 34 34 34 34 34 36 35 36 36 36 37 37 36 37 37 37 35 34 34 34 34 32 32 31 30 29 30 31 32 33 33 32 31 26 27
38 38 38 38 38 38 38 35 31 31 32 34 35 36 37 37 38 37 37 36 36 37 37 35 35 36 34 33 33 32 30 31 30 30 30 30 31 30 31 32 32 31 25
37 37 37 35 34 35 36 37 36 34 34 35 36 37 37 36 37 37 36 36 35 37 36 36 37 33 32 32 32 31 31 31 31 31 30 27 29 27 28 26 28 30 30
36 36 35 33 32 31 31 33 33 30 29 31 34 36 35 35 36 36 36 35 34 34 34 34 31 31 29 27 27 27 30 31 28 25 24 24 24 24 24 25 24 24 26
36 34 33 32 31 27 25 26 26 24 26 28 31 31 33 33 34 34 33 34 32 31 30 31 32 28 25 25 26 27 27 24 23 22 23 22 19 20 21 21 20 21 23
35 34 32 30 26 25 25 25 25 23 23 23 25 27 30 32 33 30 29 31 32 33 34 34 27 24 25 26 26 26 23 21 21 21 21 21 21 19 19 19 21 22 23
34 33 31 27 23 23 23 23 24 25 24 23 26 31 33 32 30 28 30 32 34 34 32 31 25 25 25 25 24 22 21 21 21 22 22 21 20 19 20 20 26 27 27
32 31 29 23 20 22 22 21 23 24 25 24 28 31 33 33 33 32 32 32 33 32 32 27 22 24 24 23 21 21 22 21 20 21 20 20 21 23 20 19 22 23 26
31 30 26 19 19 20 19 20 22 23 26 25 29 32 32 33 34 34 34 35 34 33 23 17 22 23 22 27 27 25 21 20 20 20 20 20 22 21 21 23 24 23 24
30 28 22 16 18 20 20 20 21 23 25 26 30 32 33 33 33 34 35 33 32 21 19 21 23 22 22 27 28 30 25 23 22 23 22 20 17 20 20 21 22 22 24
29 27 17 13 18 19 19 20 20 22 24 26 31 31 32 32 32 34 33 32 33 30 19 24 24 24 27 29 28 28 24 23 21 20 20 19 19 21 20 25 23 24 22
28 23 15 12 15 17 18 19 21 22 24 26 30 31 32 32 32 32 32 31 30 22 24 24 24 24 22 25 23 23 20 20 19 18 19 18 19 21 26 25 23 22 22
17 16 15 16 16 17 19 20 22 23 24 26 29 31 32 32 32 32 31 30 19 23 22 22 21 20 19 21 19 19 20 14 19 19 18 20 19 23 21 22 22 21 19
17 19 19 19 19 21 23 23 23 24 25 27 29 29 30 30 29 29 25 19 24 23 22 23 20 19 19 18 18 18 18 18 20 18 18 20 22 21 22 23 23 23 24
18 19 20 21 22 23 24 24 23 24 25 27 28 28 28 26 24 22 20 23 22 20 20 13 16 18 19 16 17 18 18 18 15 18 19 20 18 19 21 21 24 23 23
17 19 20 22 23 24 25 24 25 26 27 27 27 26 25 25 24 21 20 20 20 18 19 19 13 16 19 16 18 19 17 20 16 18 18 18 18 18 19 19 21 21 20
19 20 21 22 24 25 26 28 28 28 28 27 27 26 26 26 25 21 21 20 19 18 20 18 16 14 14 13 15 16 12 18 17 16 16 17 18 16 16 16 18 19 19
21 22 22 24 25 26 28 27 28 30 28 27 27 26 27 25 21 20 21 22 19 20 19 17 16 3 1 11 17 17 14 9 14 7 7 12 12 13 14 13 14 16 17
22 22 24 25 26 28 27 27 29 30 29 30 30 28 31 26 23 23 23 25 24 25 25 23 15 10 16 18 19 18 17 15 15 7 4 7 4 8 12 11 10 11 13

GFSMW_sfc_dewp_006.txt.gz
Dewpoint
46 47 48 51 51 52 52 53 53 54 52 50 49 48 47 50 51 44 43 42 41 40 40 40 40 40 39 39 40 39 39 38 42 39 37 38 37 40 43 42 41 41 42
42 44 43 45 48 51 52 52 50 48 48 48 48 50 50 48 43 41 39 40 40 39 39 40 40 39 38 39 40 40 39 39 41 40 39 35 37 38 38 39 39 38 40
42 41 39 38 40 44 44 42 43 43 45 48 48 44 43 43 39 40 36 38 39 39 39 39 39 38 38 39 39 39 39 38 39 39 38 35 33 35 37 35 36 36 36
39 37 36 36 36 36 37 38 39 39 40 40 40 39 39 38 40 37 35 37 38 38 38 38 38 38 38 39 39 38 37 38 34 37 36 37 36 34 32 34 33 35 34
39 38 38 38 39 38 37 38 38 38 38 39 41 40 37 39 38 35 34 34 37 37 37 37 37 37 37 36 36 34 33 35 33 34 35 35 35 35 33 29 30 30 33
40 40 40 39 38 38 37 37 39 39 39 38 39 38 37 35 33 34 35 35 35 37 37 37 37 37 36 35 34 33 33 33 33 33 33 34 33 31 32 29 28 27 31
40 41 39 38 37 36 36 37 36 35 36 36 36 36 35 32 33 34 35 36 37 37 37 37 36 36 35 35 33 31 31 30 29 30 30 32 31 33 32 31 29 28 27
39 39 38 37 37 37 33 32 32 32 34 35 35 35 35 36 37 38 37 37 36 36 37 36 34 34 36 35 35 33 31 31 29 28 28 30 31 31 31 31 29 22 23
38 38 37 36 36 37 36 33 33 33 34 35 36 36 36 35 36 36 37 37 37 37 37 35 37 37 37 35 34 32 31 31 30 30 30 30 30 29 27 30 28 26 20
37 36 33 33 34 34 36 34 30 27 28 29 31 30 30 31 33 34 34 35 36 36 37 36 37 35 33 32 32 30 30 30 31 31 30 26 27 26 26 25 26 26 22
35 33 32 31 29 29 28 26 24 23 25 27 28 29 30 31 32 32 34 35 34 35 35 33 33 31 31 31 28 26 27 29 29 25 24 23 23 23 24 23 22 21 22
33 32 31 29 25 24 24 23 22 22 24 25 28 28 30 30 30 31 31 32 32 31 32 32 32 32 30 27 25 25 27 25 23 22 22 22 19 20 20 20 19 19 20
34 33 31 26 24 24 24 24 23 21 22 22 24 28 30 31 30 29 28 30 30 30 32 34 32 28 26 24 25 26 25 22 21 22 21 21 21 20 19 19 19 20 22
33 32 30 25 23 24 25 24 23 24 23 22 25 28 30 31 31 31 30 30 31 33 34 31 31 27 24 24 25 23 21 21 22 22 22 22 21 20 19 20 20 22 22
32 32 29 23 22 23 23 22 23 24 24 24 24 28 31 31 31 32 33 33 33 34 32 32 26 22 23 23 22 21 21 21 21 22 22 21 23 25 23 19 20 20 22
31 31 28 22 21 21 21 20 21 23 25 25 25 29 31 32 32 33 33 33 36 33 25 19 22 23 22 29 28 28 27 23 22 24 23 23 22 21 21 22 22 21 21
30 30 26 22 19 20 21 20 20 22 24 25 26 30 31 31 31 32 32 33 31 28 25 23 24 24 27 30 29 29 24 23 22 19 18 17 15 19 20 22 22 23 25
29 29 28 21 16 19 19 21 20 21 23 24 26 30 30 30 31 31 31 31 31 31 22 24 24 26 24 25 26 24 21 20 19 17 18 17 18 19 19 23 24 21 22
29 29 26 15 14 16 18 18 20 21 22 24 25 28 30 30 30 31 30 30 30 27 24 24 23 19 20 22 21 21 21 20 18 18 18 18 18 20 24 22 22 20 19
25 18 15 15 15 17 20 21 22 23 24 25 26 28 29 29 30 30 29 29 22 22 22 22 20 19 19 19 19 19 19 15 18 20 18 19 19 21 21 24 21 20 20
17 19 19 18 19 21 23 22 23 24 25 26 26 28 28 28 28 26 25 21 22 21 22 22 20 18 19 17 18 18 17 17 20 18 18 19 21 19 18 21 22 23 22
18 19 19 20 22 23 24 24 24 25 26 27 27 27 27 26 25 24 20 22 22 20 20 13 17 18 19 17 18 19 19 18 13 17 19 19 18 17 17 17 21 22 21
18 19 20 21 22 23 25 25 26 27 27 28 28 27 27 25 25 23 20 20 19 17 17 19 14 16 19 17 18 20 18 17 14 17 16 17 16 16 17 17 18 20 19
19 20 20 20 22 25 26 28 27 27 28 29 27 27 26 26 26 22 21 20 18 17 19 19 17 14 15 13 14 16 13 16 17 14 12 14 17 13 15 15 15 16 17
21 21 21 22 24 26 27 28 27 28 28 30 29 28 26 26 25 21 21 22 20 20 19 18 17 6 2 11 15 17 13 8 13 6 4 8 11 11 13 13 13 13 13
22 21 23 25 26 27 28 27 28 28 28 29 27 28 28 31 27 22 23 25 25 24 26 25 16 10 16 18 20 20 18 16 16 7 1 -3 -2 8 11 12 11 11 9

GFSMW_sfc_dewp_009.txt.gz
Dewpoint
48 50 53 56 57 58 58 57 57 57 56 52 51 51 50 50 47 41 43 43 43 42 44 41 41 41 40 42 41 38 35 32 39 32 29 28 40 42 40 40 39 38 37
46 47 51 54 56 56 56 56 54 52 49 49 50 52 52 47 41 40 42 41 42 40 40 42 40 42 40 42 41 38 33 36 41 32 29 25 26 32 38 36 37 38 36
44 45 48 51 53 51 51 50 49 49 48 49 48 46 46 45 42 38 38 39 40 38 40 42 42 42 42 40 41 40 38 33 36 41 31 26 24 31 31 33 34 35 33
40 39 40 40 42 42 44 44 44 43 43 44 44 45 42 41 42 38 38 39 41 40 38 40 42 42 41 41 40 37 38 36 31 31 34 35 34 26 24 26 27 30 27
38 37 38 39 39 42 43 43 42 42 42 44 44 42 42 41 38 39 40 40 41 41 39 39 41 41 39 40 39 37 34 32 29 28 28 29 26 28 24 18 19 20 21
40 40 40 40 40 41 43 42 39 38 41 42 42 43 42 38 38 39 39 39 40 40 41 39 40 40 39 37 36 36 33 31 30 28 27 23 20 19 23 20 19 18 18
41 40 39 38 39 40 40 38 36 36 39 39 39 39 39 40 40 39 38 38 37 36 39 41 40 38 36 36 36 33 33 31 27 27 23 26 24 25 24 23 20 21 20
42 40 38 38 36 36 36 37 36 36 37 38 37 36 33 30 28 30 30 30 31 33 40 40 38 38 38 37 36 34 33 33 31 31 31 28 27 31 31 27 27 23 19
41 39 38 38 37 36 38 36 30 27 29 31 30 31 30 30 29 31 31 30 34 36 40 39 38 39 37 36 34 33 33 33 33 33 32 31 30 30 28 27 27 25 23
39 38 36 37 38 37 33 31 27 25 27 27 29 28 29 30 31 31 31 32 34 38 40 38 38 36 37 34 34 32 32 31 31 30 32 30 27 27 27 25 25 24 22
38 34 33 34 36 31 27 26 25 24 25 25 28 30 29 31 31 31 31 32 35 36 38 38 35 36 34 33 32 31 29 28 30 31 28 26 25 23 22 22 19 18 17
34 32 31 29 27 26 24 25 25 24 24 26 28 28 30 31 31 31 31 34 33 35 35 34 34 34 34 34 29 28 26 27 27 26 25 24 21 23 23 21 19 18 18
33 32 28 25 24 24 25 25 25 22 23 23 24 27 29 31 31 31 33 33 34 33 33 34 34 33 32 29 26 27 28 26 24 24 24 24 23 23 22 20 19 19 17
33 32 29 24 24 25 25 26 27 26 24 22 23 27 30 31 32 32 33 34 35 35 35 35 34 34 29 24 26 25 24 24 24 24 25 25 24 22 21 21 23 20 21
33 32 30 24 23 25 27 27 26 26 26 25 24 27 31 32 32 33 33 34 36 36 34 31 25 25 25 22 25 23 25 25 25 24 22 21 23 24 22 19 20 18 18
33 32 30 25 24 24 28 25 25 25 25 25 27 27 30 32 32 32 33 34 35 35 29 28 26 26 24 31 30 28 24 21 18 17 16 16 17 17 20 20 21 21 20
34 32 32 28 25 25 27 24 23 24 24 25 26 27 29 31 32 31 30 32 33 34 34 28 27 28 27 27 27 25 18 17 16 15 14 14 13 17 16 18 20 24 23
33 32 31 29 27 23 22 24 21 21 23 23 25 27 28 29 30 30 29 32 33 32 33 28 26 25 23 23 22 22 19 17 15 15 15 15 16 16 18 20 20 18 16
34 31 31 29 21 18 20 20 21 22 23 24 25 26 28 29 29 29 30 30 30 31 29 26 24 18 19 20 20 20 20 19 17 16 16 17 16 18 22 18 18 15 14
32 29 23 16 17 19 22 23 23 23 23 26 27 27 28 29 29 29 28 29 28 21 24 22 19 18 19 18 18 19 21 22 19 18 16 17 18 21 19 19 19 18 18
20 20 19 19 21 24 24 22 24 24 26 27 27 27 29 29 29 28 26 25 23 24 26 23 21 18 18 18 17 19 23 21 19 16 14 17 19 18 18 17 19 21 20
19 20 21 22 24 24 24 22 23 26 27 27 28 29 28 28 27 27 26 23 23 24 25 26 24 22 21 16 18 19 20 19 20 18 16 19 17 17 17 16 17 18 19
18 19 20 22 22 23 24 23 25 28 28 28 29 29 29 27 26 26 25 22 22 23 24 22 24 22 22 21 18 19 21 19 20 20 17 15 16 15 13 15 16 16 18
19 20 20 18 20 24 25 27 29 28 28 28 29 30 29 29 27 25 22 22 24 24 22 24 23 22 21 22 20 21 23 20 19 18 16 16 16 15 14 14 14 15 15
27 20 20 21 22 25 26 28 28 28 28 29 27 27 28 28 29 28 23 22 22 24 24 24 24 27 26 24 21 22 23 23 20 18 18 15 15 14 12 13 13 12 11
22 20 22 23 25 26 27 28 28 29 30 29 28 29 29 28 29 30 26 26 27 25 26 26 26 28 24 20 20 21 21 19 16 17 17 17 16 15 12 13 12 12 10

GFSMW_sfc_dewp_012.txt.gz
Dewpoint
49 53 56 58 59 60 60 61 61 61 59 56 53 49 49 49 47 44 44 44 43 42 43 40 40 41 39 42 42 39 38 35 38 35 29 28 30 36 36 36 35 36 37
50 53 56 58 59 59 60 59 59 58 56 53 49 50 51 48 43 43 44 41 41 39 38 42 40 40 38 40 42 40 36 32 35 36 33 26 25 26 32 34 33 36 34
50 53 55 56 56 56 56 54 52 51 50 51 49 49 48 45 43 41 40 41 41 39 40 42 41 41 39 36 40 40 39 35 34 35 33 29 25 26 27 30 27 33 30
49 48 48 50 49 49 50 49 48 47 46 44 45 47 43 42 42 42 41 40 43 43 41 40 42 41 39 39 39 36 38 35 30 31 28 31 30 26 24 25 27 24 23
44 42 42 42 43 46 46 45 44 43 45 45 46 44 43 41 40 41 41 42 42 42 40 40 40 40 39 40 40 38 35 34 33 29 29 29 26 25 21 19 20 20 19
40 38 39 40 41 44 46 45 43 42 43 43 44 44 42 40 39 39 36 33 31 29 30 30 39 41 40 41 38 37 36 34 31 27 25 23 22 20 19 18 19 18 18
39 40 39 39 41 44 44 42 40 40 41 42 40 40 38 34 30 27 25 26 23 24 27 32 35 38 40 38 38 36 37 32 28 27 24 23 23 22 21 21 19 18 18
41 40 40 40 41 42 41 41 39 38 36 34 31 30 27 24 23 26 27 25 26 26 32 35 37 39 39 38 38 37 34 32 29 29 27 25 23 22 22 21 21 21 19
41 40 40 40 40 40 42 39 33 29 29 30 29 29 29 29 29 30 30 27 29 26 33 39 39 39 39 38 37 33 31 30 28 28 27 24 23 23 22 22 22 24 24
41 41 40 40 39 39 36 35 30 28 28 27 28 27 28 29 31 31 30 29 30 31 33 36 38 39 39 37 33 30 27 26 26 23 25 25 22 22 23 20 22 22 22
41 41 39 39 39 35 33 30 29 28 27 26 28 30 30 30 30 30 30 29 32 30 31 34 36 37 36 32 32 33 25 24 25 26 25 26 25 23 23 22 21 20 18
41 39 37 38 36 33 29 29 29 27 25 26 27 28 29 29 29 30 29 31 31 32 31 32 33 35 33 32 33 30 23 24 24 25 26 25 20 25 24 21 21 19 19
40 37 35 34 32 30 28 28 29 27 24 22 23 26 27 28 29 30 31 30 31 32 33 32 32 32 32 32 28 25 24 25 26 26 26 25 25 24 22 21 20 19 19
37 35 33 31 29 27 28 29 32 30 24 21 22 24 28 28 30 31 31 31 31 32 32 32 33 34 31 28 24 24 26 26 26 27 26 25 23 22 21 19 20 18 21
36 35 33 31 28 27 30 33 31 29 27 24 22 25 28 29 30 31 30 31 33 32 32 31 29 28 26 22 27 26 27 27 25 24 20 19 20 20 20 18 19 18 18
35 35 34 32 28 27 31 29 29 27 26 25 25 26 28 28 30 29 31 30 30 30 30 31 31 31 24 31 29 25 22 21 20 18 17 17 18 18 20 20 20 20 19
35 35 35 33 29 27 29 29 26 26 25 24 24 25 27 28 28 27 28 27 29 31 30 31 32 31 31 27 24 23 21 20 18 17 16 14 12 18 17 18 20 22 23
36 36 35 33 30 27 27 28 23 22 22 22 24 24 24 25 26 27 27 29 29 29 28 28 30 29 25 22 21 21 22 19 17 17 17 17 17 17 18 18 18 15 14
38 38 35 33 29 27 26 22 21 21 23 22 19 21 25 25 25 26 29 29 28 28 27 27 27 26 24 20 19 20 23 21 20 18 16 16 16 18 20 18 16 13 13
38 36 32 30 26 22 21 21 22 22 18 20 23 24 23 24 25 27 29 29 29 26 24 25 26 21 24 19 18 20 24 25 22 19 15 13 17 19 18 20 18 18 15
37 33 26 23 22 22 23 23 21 17 20 24 24 23 24 26 27 27 28 28 27 26 28 26 26 24 24 23 18 18 25 24 21 20 17 16 18 18 18 17 19 19 17
29 25 22 23 25 26 23 16 15 20 24 24 25 25 27 27 26 29 29 28 27 26 28 32 30 27 26 20 20 19 20 20 24 22 20 21 17 18 17 15 16 17 19
22 20 23 26 26 20 18 16 19 25 26 26 27 27 29 28 27 28 28 27 25 26 27 26 27 26 28 26 20 19 20 21 23 23 21 18 16 16 14 12 15 16 18
19 21 25 24 19 21 21 22 24 26 27 27 27 28 27 28 29 28 27 26 27 27 25 25 25 25 24 26 26 25 25 24 23 22 22 20 18 18 17 15 15 16 16
29 29 27 19 18 22 23 25 26 26 26 27 27 27 28 27 27 27 29 29 27 26 27 26 26 31 30 27 26 25 25 26 23 22 24 22 20 17 16 16 15 16 13
29 25 23 23 23 24 26 27 27 27 29 29 28 28 29 28 27 27 28 30 27 27 27 27 29 33 29 24 23 22 22 22 20 21 22 24 23 21 17 17 17 17 14

GFSMW_sfc_dewp_015.txt.gz
Dewpoint
49 51 53 56 55 57 58 61 61 62 60 58 56 52 50 50 49 46 46 46 44 42 44 42 43 43 42 43 43 42 41 33 34 31 33 33 35 37 32 32 35 38 36
48 52 55 57 57 58 59 61 60 60 57 54 51 50 50 50 45 44 45 43 44 42 41 44 43 43 41 42 41 40 37 34 34 32 31 29 27 28 31 31 32 37 31
48 52 55 56 57 58 59 58 57 55 52 51 51 51 50 46 43 43 41 43 44 42 42 43 43 43 41 36 39 38 39 34 34 35 30 27 25 27 27 30 28 36 30
48 52 54 55 55 55 55 53 51 49 50 48 45 45 44 43 44 42 42 42 43 43 40 39 40 41 39 38 37 34 37 37 32 32 29 32 30 26 25 23 23 25 24
50 49 48 48 48 50 50 49 46 44 45 46 47 45 44 42 41 42 41 41 37 33 29 29 32 35 38 39 40 40 38 35 34 32 30 29 26 26 21 19 19 19 20
45 43 43 44 44 46 47 47 44 44 45 46 46 46 43 40 37 33 28 26 25 25 27 27 32 34 36 39 38 38 38 39 37 31 29 26 23 20 20 19 21 21 20
41 39 39 39 43 45 46 45 43 42 44 43 41 39 34 32 28 27 25 26 25 25 28 32 34 34 35 37 37 40 39 39 34 32 29 25 24 24 22 20 20 19 18
39 38 39 41 43 45 44 42 42 41 39 35 32 31 28 29 26 27 28 26 26 27 30 31 35 37 36 40 40 40 41 38 33 31 30 27 26 24 22 21 20 23 20
38 39 40 41 43 43 43 44 40 35 32 32 32 32 34 31 30 30 30 27 29 25 29 32 34 35 39 39 40 40 37 36 32 30 29 26 24 24 22 21 21 24 25
38 39 41 42 42 42 43 41 36 32 33 31 32 32 31 30 31 31 30 29 30 30 30 30 31 33 39 39 39 35 32 31 30 25 27 27 27 26 24 21 23 22 24
39 40 41 41 41 42 40 37 33 34 31 30 30 32 30 30 30 30 30 29 31 30 29 30 30 31 32 33 34 32 32 33 28 26 28 27 27 26 25 25 23 22 22
39 41 41 41 41 40 36 34 35 32 30 29 30 30 31 29 29 29 29 30 30 30 29 30 30 29 29 32 31 31 30 29 26 27 28 26 22 26 26 22 21 21 20
39 41 41 40 40 37 35 33 33 31 29 28 26 27 28 29 29 29 30 30 29 29 30 30 29 29 30 30 33 32 27 25 27 28 27 28 26 24 21 21 21 19 16
40 41 40 39 39 37 34 32 34 33 32 23 23 24 27 29 29 29 30 30 29 29 30 30 29 29 27 26 25 24 25 26 27 30 27 24 22 21 21 18 19 18 19
40 41 39 38 37 35 33 32 35 36 28 24 23 26 28 29 28 28 29 29 30 28 28 28 30 32 27 23 28 27 27 27 26 25 21 20 20 19 19 17 19 18 17
38 39 38 36 35 33 31 32 35 32 28 27 26 26 27 27 27 28 30 29 29 27 27 27 28 32 28 31 28 24 24 23 22 21 19 19 23 21 22 22 21 20 18
37 38 37 37 35 34 32 33 31 29 27 26 25 25 26 25 26 25 24 25 28 28 28 27 27 31 31 29 24 23 21 23 22 20 18 16 12 19 18 21 22 22 24
36 37 37 37 37 34 30 32 29 26 26 24 23 25 23 21 22 23 23 26 28 28 27 26 28 28 27 25 22 21 23 24 22 20 19 18 17 18 19 17 17 15 15
37 37 38 38 37 33 30 28 26 23 22 24 23 17 20 22 22 22 24 27 28 28 27 26 25 25 26 24 21 20 24 24 22 21 19 17 15 21 20 18 17 14 14
37 37 38 38 36 32 28 26 23 28 23 21 18 20 20 20 21 23 26 27 28 27 25 24 25 24 27 23 21 20 25 25 24 21 20 18 17 19 18 19 18 18 15
37 39 39 36 33 27 25 29 25 24 18 20 22 20 20 22 25 26 26 27 28 28 30 28 28 28 27 27 22 20 23 25 23 21 20 20 20 18 18 19 18 19 16
37 37 34 29 26 27 29 27 24 20 23 23 23 22 24 25 25 28 28 28 28 29 29 33 30 30 28 24 23 21 21 21 24 23 22 24 21 18 18 18 15 17 18
33 29 25 26 30 30 26 22 24 24 23 24 25 25 26 27 27 28 28 28 27 28 28 29 31 28 31 32 25 24 21 22 24 25 24 21 21 18 18 15 16 19 19
23 23 30 31 29 31 28 23 26 27 26 26 27 28 28 27 27 27 28 28 28 28 28 29 27 27 26 26 28 26 26 24 25 26 25 23 23 22 21 21 19 18 18
32 33 33 32 29 25 24 26 27 27 27 28 28 28 31 30 27 26 27 29 30 30 29 30 29 35 32 28 28 28 28 29 26 24 25 23 23 20 20 19 19 19 18
34 34 32 28 24 26 26 27 28 28 29 30 30 30 30 30 28 28 28 30 31 31 28 27 30 36 30 28 26 26 24 22 23 23 23 24 26 24 21 20 19 19 18

GFSMW_sfc_dewp_018.txt.gz
Dewpoint
47 50 54 55 57 59 60 62 62 62 60 59 58 58 55 54 54 49 50 49 47 46 47 48 48 47 45 46 44 43 40 40 40 36 35 34 35 36 33 34 34 36 33
48 51 54 57 58 59 61 62 61 61 60 59 56 54 53 54 49 49 48 48 48 46 44 47 46 46 45 44 44 41 41 39 39 36 34 31 30 32 31 33 32 33 34
48 51 54 57 59 61 61 59 60 61 60 55 53 53 51 50 48 48 47 47 47 45 44 45 45 45 43 42 42 40 40 38 37 38 34 30 28 30 32 30 31 31 32
47 51 54 57 58 59 60 59 59 56 53 53 52 52 48 46 48 47 47 46 45 43 36 37 40 40 43 42 42 38 40 39 36 35 34 34 32 27 24 26 26 26 24
47 50 53 56 56 57 57 55 52 50 50 50 52 50 48 47 46 45 43 40 37 36 33 35 39 39 39 40 42 42 39 38 38 37 34 31 30 28 24 21 23 23 25
49 51 52 52 51 52 53 52 47 46 49 49 49 48 45 42 37 36 35 34 34 34 36 35 37 39 40 39 41 41 40 39 39 37 34 30 28 25 25 23 22 22 23
49 48 46 46 48 49 50 49 46 45 47 47 45 42 39 38 37 33 34 33 33 33 35 35 37 38 39 41 41 40 39 40 39 36 32 32 29 28 27 25 23 22 23
46 44 43 44 45 47 47 46 44 44 44 41 37 38 37 36 36 36 32 33 33 33 34 35 36 38 39 40 40 40 40 40 38 35 34 31 31 29 27 25 24 22 22
42 41 41 43 45 46 47 47 44 42 38 37 38 39 37 36 37 36 34 34 34 29 34 35 35 36 37 39 40 40 40 39 38 35 34 31 31 30 30 27 25 25 22
41 39 40 44 45 46 45 48 44 38 36 37 38 36 37 38 36 35 34 32 33 34 34 34 34 35 36 38 39 39 38 35 35 32 32 30 30 31 30 26 28 26 24
40 40 40 43 45 45 45 46 40 35 36 35 37 37 37 37 37 34 34 32 34 34 33 33 34 33 33 33 34 35 34 33 34 34 30 31 30 30 28 28 26 24 23
41 40 41 43 43 44 44 41 38 36 36 35 36 36 37 36 34 33 32 33 33 33 32 33 33 33 33 34 33 33 34 33 31 30 30 30 27 28 28 27 23 23 20
40 40 42 42 42 43 42 39 38 37 34 33 32 32 35 34 34 33 33 33 33 32 32 32 33 31 32 31 33 33 33 30 29 30 30 30 28 25 24 23 20 20 19
39 39 42 42 42 42 40 38 38 39 34 32 30 31 35 33 33 33 33 34 33 32 32 33 33 32 31 29 28 28 30 29 29 30 28 27 24 21 20 18 19 17 19
37 39 42 42 41 42 40 38 37 37 38 36 27 32 33 32 33 34 33 34 34 32 32 32 33 32 32 27 29 28 28 28 27 27 25 22 23 20 20 16 19 19 19
32 38 42 43 41 40 40 37 36 38 39 33 31 31 31 30 33 32 34 34 34 32 31 30 32 32 31 31 28 25 23 25 24 23 22 21 24 25 23 25 25 22 19
34 37 41 42 41 40 40 37 36 39 36 32 31 31 31 32 32 31 29 28 30 31 31 31 31 30 31 30 26 23 21 24 25 23 21 19 15 22 20 21 21 20 22
36 38 40 41 41 40 38 36 35 35 32 30 28 29 31 27 26 27 26 30 30 31 31 30 30 30 29 29 26 22 21 25 24 22 22 20 19 21 20 19 18 18 17
37 37 39 40 41 40 38 34 33 32 29 28 28 26 26 25 26 26 28 30 31 31 31 30 28 28 27 28 24 21 23 26 24 23 22 20 17 21 20 19 19 17 16
35 36 38 39 40 40 36 33 29 27 29 28 27 27 25 25 25 27 30 31 30 30 30 29 30 28 28 27 24 21 26 25 26 24 22 21 19 18 19 19 19 18 17
36 39 39 34 34 29 30 28 30 30 27 32 31 27 26 25 28 29 29 29 30 31 31 28 29 28 29 26 25 23 23 26 26 24 23 24 20 21 21 18 20 19 17
37 34 29 30 31 30 31 31 29 29 33 33 27 27 30 28 27 31 30 31 30 31 30 31 30 31 29 29 27 25 23 23 22 24 24 25 23 23 21 19 20 19 20
27 27 29 32 30 29 30 32 33 32 30 30 30 30 29 29 29 29 28 30 30 31 30 31 30 30 31 30 28 27 25 24 22 25 26 24 23 24 22 23 20 19 19
25 30 31 32 34 32 31 30 30 29 30 31 31 31 31 30 29 28 28 29 31 32 31 30 30 30 30 31 28 26 25 24 24 24 25 23 23 21 21 21 23 23 21
33 33 33 33 32 30 27 28 30 30 30 31 30 31 32 31 30 29 29 30 29 30 29 30 31 31 30 30 29 29 29 29 27 21 20 20 22 22 22 21 21 21 21
34 33 31 29 28 28 28 29 29 30 31 31 31 32 33 33 30 30 30 30 31 31 32 31 28 32 32 29 27 27 27 26 24 21 18 17 19 19 21 18 19 18 18

GFSMW_sfc_dewp_024.txt.gz
Dewpoint
47 51 56 56 56 58 58 59 59 59 57 58 57 56 54 53 51 46 46 45 46 45 44 45 43 43 42 41 40 38 36 36 37 33 33 33 33 32 31 31 29 29 31
46 47 51 55 56 58 58 59 59 59 56 56 58 56 53 49 46 45 45 44 44 43 43 43 43 42 40 39 39 37 37 38 36 33 33 29 31 30 29 29 28 26 28
46 50 52 55 57 57 59 59 59 58 57 56 56 51 48 46 44 43 43 44 44 40 38 37 36 36 37 36 37 38 36 35 36 34 32 29 28 28 29 26 25 25 26
47 51 55 57 58 58 59 60 59 58 58 57 53 50 47 44 44 44 44 38 34 35 35 34 35 35 36 35 36 40 38 36 35 35 34 31 30 25 23 25 25 25 24
48 52 58 59 59 59 59 59 59 59 59 52 50 47 45 45 45 41 33 32 33 34 34 34 34 36 37 37 39 38 38 38 37 35 34 30 28 26 24 22 23 24 25
49 53 58 60 59 59 59 58 57 52 52 51 48 45 41 38 35 32 31 32 34 34 32 33 33 34 37 39 38 38 38 37 37 36 34 30 27 26 24 23 23 22 23
51 55 56 58 58 57 56 52 47 44 43 42 41 38 34 32 30 30 31 32 32 32 31 32 32 33 37 39 38 38 38 37 36 35 33 32 31 29 27 25 23 22 23
52 54 54 52 52 51 48 47 43 40 36 35 34 34 32 32 32 33 33 33 32 32 32 32 32 33 33 37 38 38 38 37 36 35 34 33 31 30 29 26 24 22 22
51 51 50 49 48 45 46 45 42 38 35 33 33 32 33 34 34 33 33 34 33 31 31 31 31 32 32 31 36 38 37 36 36 35 35 33 31 31 30 29 27 26 20
48 49 48 47 45 44 44 44 41 36 34 34 34 34 34 33 34 34 33 33 33 32 31 31 31 31 31 33 35 37 37 36 33 33 33 31 33 31 31 27 28 26 25
46 47 47 46 45 44 44 43 39 34 32 32 33 34 34 35 35 34 34 34 32 32 31 31 30 30 33 32 31 30 31 32 33 33 32 32 31 30 28 27 24 22 21
45 45 45 46 45 45 44 43 39 34 32 33 34 33 34 35 35 34 33 34 33 32 31 31 30 31 33 31 29 30 31 32 30 30 30 29 28 27 25 22 19 19 18
42 42 43 44 45 45 45 43 39 35 33 33 33 33 34 34 34 33 33 33 33 31 31 30 30 31 33 31 31 31 31 31 30 30 29 29 27 24 22 19 18 18 17
41 40 41 43 44 44 44 43 38 36 33 33 32 33 34 34 34 33 33 33 32 32 30 31 32 33 33 31 31 30 29 28 27 28 27 25 22 19 18 17 16 17 18
40 39 40 42 43 44 44 40 39 38 35 33 32 34 35 35 34 33 32 33 33 31 31 32 32 33 32 31 31 28 27 26 25 25 22 21 22 25 20 17 18 19 19
35 39 41 42 42 43 43 43 40 37 36 33 32 33 37 34 34 32 31 31 31 32 32 32 33 32 31 32 33 29 25 24 23 23 22 20 22 25 26 24 22 20 18
37 42 42 42 42 43 44 43 41 37 34 34 36 36 34 33 32 30 29 29 29 30 31 30 31 31 32 33 33 30 22 22 23 24 20 19 21 22 19 20 19 18 18
34 36 41 42 42 42 42 40 38 36 37 34 33 32 31 31 31 31 33 33 33 31 30 30 31 31 32 33 32 28 21 22 24 23 21 21 20 20 19 18 17 17 18
34 32 32 36 38 40 38 37 35 30 29 31 31 31 32 32 33 34 34 34 32 31 30 30 30 30 31 33 31 25 21 23 24 24 23 22 20 22 22 19 18 17 17
30 30 31 30 28 30 32 33 33 32 32 32 31 32 33 34 35 36 35 33 31 29 30 30 30 31 29 32 31 25 24 24 25 24 23 24 20 24 22 21 20 17 16
30 31 31 31 31 33 34 33 33 32 32 33 36 37 37 36 37 34 32 30 30 29 29 29 30 28 28 28 31 29 24 24 24 25 23 23 24 23 24 24 21 19 19
31 32 32 33 33 33 33 32 33 36 37 37 37 38 37 34 31 30 30 29 28 27 28 26 28 27 28 29 30 31 27 25 23 24 24 24 25 25 26 24 25 25 24
32 33 32 32 34 34 33 33 34 35 37 36 33 32 31 31 31 30 29 27 27 25 27 27 24 26 27 28 30 31 30 28 23 24 23 24 25 26 25 26 26 23 20
33 32 31 31 31 31 30 31 31 31 31 30 30 31 30 30 30 30 29 28 25 25 27 27 26 25 27 28 29 29 29 29 25 23 24 22 24 20 21 21 23 22 20
33 33 31 31 30 29 29 29 30 30 28 29 29 30 28 29 29 29 29 29 29 28 27 27 26 23 23 26 30 28 27 29 27 23 19 18 18 20 21 20 20 20 18
31 29 29 29 29 28 28 28 29 28 28 28 29 28 27 27 29 29 29 31 31 31 31 31 29 29 30 30 31 33 32 30 29 24 20 19 18 19 19 17 17 16 15

GFSMW_sfc_dewp_030.txt.gz
Dewpoint
55 55 54 57 59 59 59 59 57 56 56 56 54 52 52 52 50 48 47 48 46 44 44 43 42 41 39 39 38 37 36 36 35 34 34 33 33 30 29 28 28 27 28
55 54 55 58 59 59 59 58 58 57 56 55 54 53 53 51 48 46 46 45 45 44 43 42 41 39 38 37 38 37 37 37 36 33 32 30 31 31 29 27 27 27 27
53 54 56 57 58 58 59 59 58 57 56 56 54 50 50 46 44 43 43 43 44 42 39 37 36 35 35 35 37 37 36 35 35 34 33 29 27 29 30 27 27 27 27
50 52 55 57 57 58 58 59 58 57 56 57 54 51 51 47 46 43 43 37 37 36 35 36 37 37 37 37 39 38 38 36 34 35 34 32 31 28 27 27 26 27 25
45 49 51 56 57 56 57 58 58 57 56 57 55 53 51 50 47 43 34 35 35 35 35 36 36 37 38 39 39 38 37 37 36 35 34 32 29 27 25 23 24 25 26
45 46 48 53 55 56 56 58 59 58 57 56 54 52 49 48 44 40 35 37 34 35 34 34 35 37 40 38 38 38 36 36 36 36 35 32 29 27 25 24 24 24 25
45 49 51 53 55 56 57 58 59 57 57 56 54 52 50 47 43 35 34 32 33 35 34 34 34 37 40 39 38 37 36 36 35 35 34 33 32 31 28 26 25 24 24
43 50 53 54 55 56 56 58 58 57 56 55 53 51 48 46 42 35 33 32 33 33 33 35 34 34 38 38 38 38 37 37 36 35 34 34 33 32 29 27 25 24 24
44 49 54 55 56 56 56 58 56 56 54 53 50 47 45 43 38 40 35 34 34 33 34 34 36 35 33 34 36 38 37 37 36 35 34 33 33 32 31 29 27 27 27
48 51 54 56 56 56 57 56 54 52 50 49 45 43 43 43 41 36 36 37 37 33 35 36 34 33 33 34 34 35 37 36 36 34 32 33 32 31 31 29 29 28 26
49 52 54 55 55 54 52 52 48 44 43 43 41 40 41 40 40 38 38 34 34 36 36 34 33 32 32 33 33 35 35 33 31 32 32 32 32 31 30 28 28 26 25
49 51 51 51 51 51 50 49 44 40 39 39 40 41 40 40 37 34 33 34 34 35 33 34 32 32 32 33 32 30 29 30 31 31 31 31 31 30 29 27 25 21 20
48 49 50 49 49 49 48 48 44 41 42 40 41 39 37 33 32 33 33 34 34 34 33 32 32 32 33 33 32 31 30 30 30 31 30 29 29 28 26 24 22 20 18
47 48 48 48 47 46 48 46 44 40 41 39 38 36 34 33 33 34 34 34 34 33 32 33 33 33 33 32 32 31 30 30 30 30 30 29 29 27 25 22 20 18 18
45 45 46 46 47 47 47 46 43 42 42 40 37 34 35 35 35 37 35 35 34 33 32 33 33 33 34 31 32 31 30 29 29 29 28 28 28 28 23 19 19 17 18
43 42 42 43 45 47 47 46 43 41 41 40 37 39 39 39 37 35 35 35 34 33 32 32 33 35 33 33 34 33 30 29 27 26 25 23 27 29 31 30 24 20 20
36 38 41 41 42 44 45 43 43 41 39 38 38 40 40 38 36 34 32 32 32 34 35 36 36 35 33 34 35 35 30 28 27 25 24 22 19 25 23 28 28 26 24
32 32 33 36 38 42 42 40 38 37 37 37 38 38 35 33 34 34 34 35 36 38 38 37 34 32 30 33 34 34 31 27 26 24 24 23 21 22 22 22 21 19 18
31 31 33 33 33 32 32 32 32 32 33 33 34 34 35 35 36 36 37 38 38 38 36 34 33 31 30 32 33 33 29 25 24 23 24 23 22 24 27 22 20 18 18
32 33 33 33 33 32 32 31 31 32 32 34 36 37 37 37 37 38 38 38 37 34 34 30 30 30 29 31 32 33 26 25 25 24 25 29 24 26 27 25 22 20 18
33 33 32 32 32 32 32 33 35 36 38 38 39 40 40 39 39 38 37 37 36 32 29 28 28 28 29 29 32 33 28 26 25 25 25 25 28 30 28 27 23 21 20
32 33 33 33 34 34 35 36 36 38 38 39 39 39 39 38 37 35 33 30 29 28 28 25 27 27 28 29 30 32 33 29 26 25 25 26 27 28 29 27 27 25 24
30 31 31 32 33 34 35 35 35 34 33 32 31 31 30 30 30 30 29 29 28 25 26 27 27 27 28 28 29 31 32 32 29 27 26 27 27 29 30 29 27 26 25
29 30 29 29 29 30 30 30 30 29 28 28 28 29 29 29 29 28 29 28 26 26 27 27 27 27 28 27 27 27 27 29 29 28 29 26 26 28 29 27 28 27 25
30 29 28 28 28 29 30 30 29 29 29 29 29 29 27 27 28 28 28 28 28 28 28 28 28 28 27 28 29 28 26 26 27 23 27 27 26 25 25 25 25 26 24
29 29 28 29 30 30 30 29 29 28 28 27 27 27 26 25 27 27 25 29 30 30 31 31 31 30 31 31 32 31 31 32 30 27 26 26 25 24 23 24 24 24 24

GFSMW_sfc_dewp_033.txt.gz
Dewpoint
52 55 56 56 56 58 58 60 61 61 60 58 57 57 57 57 55 53 53 52 49 48 48 45 45 44 42 42 43 40 40 39 40 37 36 34 35 34 30 31 30 29 30
54 55 56 55 57 57 59 60 61 60 59 58 57 57 56 56 52 50 52 49 49 47 47 46 44 43 41 42 42 41 39 39 40 35 34 31 32 32 30 30 29 33 29
53 55 55 55 56 57 59 60 61 60 59 59 57 54 54 53 49 47 48 47 47 46 45 45 43 41 38 38 41 41 40 36 38 38 33 28 26 32 33 32 29 32 30
51 54 55 55 56 58 60 61 60 59 59 58 57 54 54 52 51 49 48 46 47 45 41 39 40 40 39 40 40 40 41 40 36 38 35 38 36 28 26 32 32 31 29
49 51 54 55 56 58 60 61 60 59 59 58 58 57 56 54 51 48 46 43 42 40 38 39 41 40 39 42 43 43 41 40 37 36 37 37 35 34 30 25 27 28 29
47 48 52 55 57 60 60 61 60 59 59 58 58 57 55 51 49 45 43 40 39 38 39 38 39 40 41 42 42 42 42 39 38 37 37 34 31 29 29 27 27 28 28
46 47 48 52 56 58 59 60 59 59 58 58 58 56 53 50 48 43 43 41 38 36 38 38 39 40 42 42 41 41 41 40 38 38 36 36 34 33 32 30 28 27 27
46 46 47 49 53 57 58 59 59 58 57 58 57 56 53 52 48 45 45 42 39 35 38 37 39 40 41 41 41 40 40 41 40 39 38 36 36 36 34 31 30 28 25
42 44 46 49 52 56 57 59 58 58 59 58 57 56 54 52 49 46 45 43 39 35 38 39 38 38 38 39 41 38 39 41 42 40 39 38 36 35 35 34 32 31 27
43 45 48 52 53 56 57 59 58 57 58 58 57 56 55 52 51 48 45 41 39 36 38 38 37 36 36 36 37 37 38 39 40 39 38 37 34 35 35 32 32 31 30
47 47 50 54 56 56 57 58 58 58 57 57 56 55 54 52 50 46 45 42 40 37 36 37 36 35 36 35 36 36 36 38 39 38 35 35 35 33 34 33 32 31 30
46 50 52 55 56 56 56 57 57 56 55 54 52 52 51 49 47 46 44 43 38 37 36 36 34 33 34 35 35 35 34 37 36 33 34 33 31 35 35 33 32 30 29
46 50 52 53 54 54 54 53 52 51 48 48 49 49 47 47 46 45 44 40 37 37 36 34 34 34 35 34 34 34 34 33 33 33 33 33 34 33 32 31 29 28 24
43 48 50 51 51 51 52 52 50 47 46 45 46 46 45 45 45 42 38 37 36 35 35 35 34 34 33 33 36 38 34 34 33 34 34 33 33 32 31 30 29 25 23
43 46 48 49 49 49 49 49 48 45 45 42 41 43 41 39 39 38 38 37 37 35 35 35 35 34 35 37 40 36 34 34 33 34 32 33 33 33 32 27 26 23 21
42 42 43 45 47 48 48 47 46 44 43 42 41 39 39 37 39 39 38 37 36 35 34 33 35 37 39 38 36 35 34 33 33 32 32 31 33 33 32 30 28 24 22
37 39 41 42 43 45 47 46 45 44 42 41 39 40 39 38 39 38 35 34 35 36 38 39 40 40 40 35 35 34 32 33 33 32 31 29 25 27 25 29 32 28 25
34 35 37 38 39 40 40 40 39 39 39 39 39 38 37 35 34 35 36 38 40 40 40 40 40 38 34 35 34 33 32 32 32 32 31 30 29 26 25 23 24 24 24
34 35 34 35 35 35 35 35 35 35 35 35 35 35 35 36 38 38 39 39 40 40 39 38 37 37 38 34 33 32 32 32 32 31 30 29 28 29 28 24 23 22 21
34 34 34 33 33 33 34 34 34 35 36 36 36 37 37 38 39 39 40 39 39 38 37 36 36 35 32 32 32 32 33 33 32 31 28 29 27 29 29 28 27 24 20
33 33 33 32 33 35 36 36 36 36 37 38 38 39 39 39 39 39 38 38 38 36 36 33 33 32 32 31 32 32 32 33 31 30 29 29 29 29 29 29 29 29 25
32 33 34 34 36 36 36 36 37 38 39 38 36 36 35 33 32 33 32 31 31 31 32 33 32 32 32 31 31 32 32 31 33 31 31 32 30 30 31 30 29 29 27
32 33 34 35 35 34 33 30 30 30 30 30 30 30 30 30 30 30 30 30 30 30 31 30 31 31 32 32 32 31 31 31 33 34 33 31 30 30 29 30 29 29 29
31 31 30 29 29 29 29 29 29 29 30 30 30 29 28 27 27 26 26 26 27 27 26 27 27 28 29 30 31 32 34 32 31 31 33 32 30 29 30 29 31 32 31
29 29 29 29 30 29 29 29 29 29 27 26 25 24 23 21 20 20 22 23 23 26 26 25 25 29 29 27 27 27 28 30 32 33 33 33 31 29 29 29 30 29 31
29 29 30 29 28 26 24 25 25 24 22 20 20 22 22 22 20 19 18 23 23 24 24 25 26 27 25 23 23 23 23 24 27 29 30 32 32 30 29 29 28 28 28

GFSMW_sfc_dewp_036.txt.gz
Dewpoint
47 50 51 53 52 54 55 56 57 60 62 58 54 54 57 59 60 60 59 58 55 53 53 50 49 47 45 45 45 40 37 37 39 36 36 36 37 36 33 33 32 31 31
46 50 53 52 53 53 55 57 57 59 60 58 54 56 58 59 58 57 57 56 54 52 51 50 48 47 45 46 44 39 38 39 38 37 33 31 32 34 34 32 31 35 30
49 51 52 55 54 53 55 55 57 59 61 59 56 56 58 59 56 54 54 53 53 50 48 50 48 48 45 42 41 40 41 39 39 40 31 27 28 30 32 35 32 34 32
47 49 53 54 55 55 56 56 56 58 60 60 57 56 54 56 57 55 52 51 51 50 47 48 48 46 42 40 39 40 42 41 38 38 33 36 32 22 25 32 33 34 32
46 48 49 53 54 55 56 58 58 58 60 61 60 58 57 58 58 54 52 52 52 50 47 46 45 44 40 40 42 43 42 41 36 33 36 35 33 34 29 24 23 26 27
46 47 49 51 54 56 57 59 59 58 60 61 61 60 59 58 57 53 51 50 49 49 46 42 43 43 40 42 45 44 44 39 37 34 34 31 30 28 27 26 26 26 28
46 47 48 50 52 55 58 59 59 59 60 61 60 60 59 59 56 54 52 49 46 46 45 44 42 40 41 45 43 44 41 40 37 37 33 34 31 29 28 27 27 26 26
44 46 47 49 51 55 58 59 60 59 60 60 60 60 60 59 56 55 50 46 45 44 45 42 41 40 43 42 43 39 43 40 38 39 37 32 32 32 31 29 28 27 25
36 42 45 47 50 53 58 59 59 58 60 59 57 58 59 58 56 54 49 47 47 45 43 42 41 42 41 42 40 39 39 38 41 40 38 35 32 33 32 31 30 29 27
38 40 42 45 48 51 55 59 59 58 59 56 58 57 58 57 57 55 51 50 49 46 42 42 40 41 41 39 39 39 37 39 40 36 36 35 32 31 31 28 29 29 28
41 43 45 47 50 51 54 56 58 57 58 56 58 59 59 58 58 56 53 52 50 46 42 41 40 38 38 36 37 35 36 36 35 36 35 33 33 31 30 30 29 28 27
39 45 48 51 53 53 54 55 56 56 57 58 59 58 58 58 57 55 53 52 48 46 42 41 38 38 35 34 34 35 31 35 36 34 35 33 29 33 33 30 31 29 28
38 45 49 52 53 54 55 56 57 57 57 57 57 57 56 55 55 53 51 49 48 46 43 39 36 35 35 34 35 34 36 39 37 33 32 32 33 33 32 31 30 28 24
34 43 48 51 52 54 55 55 56 56 54 53 53 54 53 51 51 50 49 49 48 45 41 38 37 37 33 33 35 40 42 40 35 34 34 33 33 33 32 30 31 28 27
37 43 47 50 51 53 53 53 53 53 52 51 50 51 51 50 50 49 47 45 43 39 37 37 37 37 36 36 42 42 40 40 37 35 33 34 35 35 34 28 30 29 26
42 45 47 48 49 50 50 50 49 49 49 47 46 45 44 44 43 41 40 39 38 36 36 36 36 36 38 39 38 38 39 39 34 33 34 34 36 35 35 34 33 31 28
42 42 43 44 45 46 48 47 47 46 45 44 43 42 41 40 40 37 36 35 35 37 38 39 38 39 38 38 38 37 35 37 35 33 32 30 26 31 32 33 33 30 29
39 40 41 42 42 43 43 44 43 43 42 42 41 40 39 38 37 36 36 38 40 40 40 39 38 38 39 38 37 36 39 35 33 32 31 31 30 30 31 30 30 29 28
38 38 39 39 40 39 40 39 38 38 38 37 37 37 38 37 38 39 40 40 40 40 39 39 39 39 38 37 37 34 33 30 30 29 30 30 30 31 34 30 29 28 28
36 36 37 37 37 37 37 37 37 38 37 37 36 37 38 38 38 39 40 40 40 39 38 37 37 36 38 35 34 33 32 31 32 31 30 31 31 31 32 31 30 29 27
35 36 36 36 37 37 38 37 37 36 37 37 38 38 39 39 40 40 39 38 37 35 35 34 34 33 33 33 34 33 33 33 33 31 31 31 32 32 31 31 30 32 30
34 35 36 36 37 36 36 35 36 37 38 36 34 33 32 30 28 29 29 28 29 31 31 35 32 33 34 32 33 33 32 32 34 32 34 35 33 33 32 31 30 29 30
34 35 35 36 36 36 35 35 35 33 32 30 29 29 29 29 29 29 29 28 29 29 30 28 29 27 28 28 30 30 29 28 31 31 33 32 32 34 32 31 30 29 32
33 34 33 32 31 30 29 30 29 28 29 29 28 28 27 26 24 22 20 20 22 23 22 23 23 24 25 27 26 25 25 24 24 26 29 29 30 32 33 34 33 32 33
33 32 31 30 29 29 28 28 28 27 26 26 24 23 22 18 17 16 20 20 22 24 23 23 23 27 26 24 22 23 23 25 24 26 30 28 29 26 30 32 33 34 32
31 31 30 29 27 27 26 26 25 25 23 20 18 22 22 20 16 15 17 23 22 21 21 21 23 24 20 19 19 20 20 21 21 24 29 31 32 30 28 31 32 33 32

GFSMW_sfc_dewp_039.txt.gz
Dewpoint
46 49 48 50 50 52 51 53 54 57 58 56 52 51 51 53 59 62 59 60 57 57 57 55 55 52 49 48 48 45 42 39 42 40 41 39 40 38 35 35 32 32 32
43 48 50 49 51 51 52 52 53 55 57 56 52 50 52 53 55 58 60 59 59 56 56 55 53 52 48 49 48 44 40 42 43 41 41 38 36 37 37 35 33 36 33
41 45 48 50 52 52 54 54 54 56 59 57 53 51 53 56 56 56 56 58 58 55 54 54 52 51 49 48 48 44 44 43 43 44 40 35 31 34 36 37 35 36 34
42 42 47 49 51 53 55 55 55 56 59 60 56 53 52 55 57 57 56 55 56 55 52 52 53 52 49 47 46 42 45 45 43 42 40 39 37 31 28 34 36 36 35
42 43 45 48 51 52 55 56 55 55 56 60 60 55 54 55 58 57 57 57 54 53 53 52 53 51 47 49 48 45 47 45 44 41 39 39 37 37 33 31 30 33 30
41 41 43 47 48 51 55 58 55 54 55 60 60 60 57 58 60 58 56 55 54 53 53 50 53 49 48 49 44 47 46 46 44 40 37 37 33 32 33 31 30 28 28
40 40 41 43 48 51 55 56 55 55 56 58 61 62 61 61 60 59 58 56 55 54 53 51 49 48 47 44 46 47 47 46 41 41 35 35 35 33 30 28 28 28 28
40 39 39 44 47 51 54 55 55 56 57 60 61 61 59 58 60 60 59 57 55 52 50 48 47 46 46 45 47 46 45 44 43 40 42 37 35 33 31 30 30 28 27
37 39 39 40 46 49 54 58 56 57 59 61 61 60 60 59 60 60 59 57 52 48 48 47 45 46 45 46 46 45 43 43 44 44 42 39 35 33 33 32 30 30 28
33 36 39 41 43 47 50 58 58 57 59 61 60 60 59 60 60 59 58 55 51 49 48 47 45 46 45 43 44 40 41 41 41 40 39 39 36 34 33 29 30 28 28
37 39 40 40 43 46 49 53 57 57 59 60 60 57 57 58 59 59 57 53 51 49 48 46 45 44 44 44 41 40 39 38 41 38 40 39 37 34 33 34 33 30 29
33 40 43 45 46 47 48 52 56 57 57 60 57 56 58 58 59 58 57 55 53 51 50 46 44 44 42 40 38 37 36 35 38 39 42 40 34 36 36 34 33 32 31
31 40 46 48 50 51 52 53 55 55 56 58 56 57 59 59 58 58 57 54 53 51 48 44 44 42 40 37 37 38 39 40 42 42 40 37 36 36 35 35 34 32 27
29 35 44 48 51 53 54 54 56 56 56 56 56 58 56 56 56 54 53 52 51 50 48 46 42 41 36 37 38 41 42 42 40 41 38 37 36 35 36 34 35 32 32
29 34 43 48 51 53 54 55 56 56 55 54 54 55 55 53 53 51 51 50 50 48 42 41 39 39 39 39 40 41 41 40 40 41 40 39 37 37 36 32 35 34 31
35 40 43 48 50 52 53 53 53 54 53 52 51 51 50 49 49 48 47 46 42 40 39 38 39 39 37 39 40 39 39 40 39 40 39 37 37 37 35 35 35 35 35
40 43 46 48 50 50 51 50 49 49 48 46 45 45 44 43 43 40 38 38 37 38 38 39 39 39 40 39 39 37 39 39 38 38 39 35 28 30 30 32 34 33 33
42 43 44 45 45 45 45 45 44 44 44 43 43 43 42 40 38 37 37 37 39 39 39 39 39 39 38 38 38 37 38 38 38 36 32 32 32 31 31 32 32 33 33
41 41 41 42 42 42 42 41 40 40 40 39 39 39 40 39 39 39 40 40 39 39 39 39 39 39 40 38 37 37 36 33 32 30 29 29 30 31 34 31 33 32 32
39 39 39 39 39 39 39 38 38 38 38 39 38 39 39 39 39 40 39 40 40 39 39 39 39 38 38 37 37 35 33 32 32 31 31 31 31 32 32 33 32 32 31
37 38 38 38 38 38 39 38 38 37 37 38 38 38 39 39 39 39 39 39 38 36 36 34 34 31 31 32 34 33 33 33 32 31 32 33 32 33 34 34 35 33 32
36 37 38 38 38 38 38 37 37 38 39 39 38 37 37 34 32 31 29 27 29 31 33 34 33 34 33 32 30 30 28 27 27 26 28 29 28 28 28 30 32 34 33
35 37 37 37 37 37 37 37 37 36 37 35 31 28 27 26 27 28 28 26 27 28 28 25 27 25 27 27 29 26 25 24 25 26 26 26 26 27 27 29 32 33 34
35 36 37 36 37 36 36 36 35 33 31 29 28 27 26 24 23 19 17 20 24 24 23 23 23 23 25 26 24 21 22 22 22 23 25 24 25 27 28 28 29 31 30
35 36 35 34 33 32 31 30 29 28 27 26 25 24 22 20 18 19 19 21 23 22 22 23 22 26 25 22 20 20 20 22 21 23 25 26 25 26 27 28 29 30 30
35 34 33 32 31 30 28 28 27 26 24 23 22 25 24 20 16 17 23 23 23 21 21 20 21 23 19 17 17 18 18 19 20 19 22 24 25 24 23 24 26 28 29

GFSMW_sfc_dewp_042.txt.gz
Dewpoint
48 53 51 51 50 51 49 49 50 52 54 55 55 55 54 55 57 60 60 62 60 59 59 59 58 56 54 52 51 48 43 41 44 43 44 44 42 40 39 39 37 35 35
48 48 51 51 53 51 51 53 51 54 56 57 54 55 54 54 56 60 62 61 61 58 58 59 58 56 53 53 50 48 46 45 46 44 43 42 40 40 40 39 37 35 35
48 47 49 51 52 51 51 52 54 55 57 57 55 53 54 53 54 57 61 60 61 59 58 58 56 56 55 52 51 49 46 44 46 44 42 39 36 37 40 40 38 39 38
44 48 48 50 51 52 53 52 53 53 55 57 57 53 50 51 56 58 58 59 60 59 57 56 56 55 54 51 51 49 47 47 45 46 44 44 39 35 32 38 39 40 37
42 45 48 49 50 53 54 54 54 54 56 58 59 58 53 57 60 59 59 58 59 58 58 55 54 55 54 53 50 47 48 48 44 45 44 42 41 40 36 33 35 37 37
42 42 47 49 51 52 54 56 56 55 56 59 59 59 57 57 59 59 58 58 57 56 55 54 55 55 54 51 49 48 49 46 45 42 41 40 37 36 37 35 35 33 33
42 42 43 46 49 52 54 55 55 55 56 59 60 60 59 59 58 58 59 58 56 56 56 56 55 54 51 50 47 49 49 47 43 42 42 39 39 38 36 33 31 30 32
42 42 42 45 47 51 53 54 54 54 55 58 59 60 60 59 60 59 59 57 56 57 57 55 51 49 48 48 48 49 48 46 44 44 41 39 40 39 35 33 33 32 31
40 42 42 43 48 50 54 55 55 54 55 56 60 61 60 59 59 59 59 58 57 56 53 51 49 48 49 47 47 46 46 44 43 42 40 41 41 39 37 36 35 32 30
35 40 40 42 45 50 53 56 55 55 55 58 61 61 61 59 58 59 59 58 56 51 51 50 48 47 47 46 46 46 44 42 42 40 42 40 40 40 38 34 34 34 33
40 40 41 43 45 46 49 55 56 56 57 58 62 61 60 59 60 60 60 59 52 51 49 49 47 45 46 45 44 43 42 40 41 42 43 43 44 41 38 36 35 34 32
36 40 44 45 45 46 49 56 57 58 58 60 61 60 60 58 58 58 58 55 52 51 49 48 46 45 45 45 44 42 36 40 40 42 43 44 41 40 38 37 34 34 32
32 39 44 47 48 49 50 53 57 57 59 60 60 60 57 58 58 58 57 54 52 51 50 48 45 44 45 43 40 39 42 42 43 43 43 42 40 38 37 36 35 34 32
31 34 43 48 50 52 53 53 57 58 59 60 59 58 58 57 56 55 54 53 53 51 48 46 45 44 40 39 39 42 42 41 42 42 41 41 40 38 37 35 35 34 34
30 33 40 48 51 54 55 55 58 59 58 58 57 57 56 55 54 53 53 51 51 50 47 43 41 39 39 40 42 41 41 40 41 41 40 40 40 40 38 36 34 33 33
28 31 37 48 51 54 54 56 56 56 56 55 54 55 55 53 54 53 52 49 46 42 40 39 39 39 39 39 39 40 40 40 39 38 39 40 40 39 37 36 36 34 32
36 40 42 49 52 53 55 54 54 54 53 50 49 51 50 49 47 44 42 41 40 40 39 39 40 39 39 39 39 38 38 38 38 37 38 38 37 36 33 32 33 34 34
40 44 48 51 51 52 51 51 50 48 47 46 45 45 44 42 40 39 38 39 39 39 40 39 39 39 38 38 38 37 38 38 38 38 38 35 32 31 32 32 31 30 31
44 46 47 48 48 47 46 45 44 44 43 43 42 42 41 39 39 39 39 39 39 39 39 38 39 40 39 38 37 37 37 36 33 33 32 32 32 33 34 32 32 32 32
43 43 44 44 43 43 43 42 40 40 40 40 40 40 40 40 40 41 42 41 41 40 39 40 40 39 39 37 37 35 33 31 30 31 30 31 31 32 30 26 25 25 27
40 41 41 40 40 40 40 39 39 39 39 40 39 40 40 40 40 40 40 40 39 39 38 37 35 35 33 32 31 29 28 26 26 26 26 26 29 29 27 26 22 22 22
38 39 39 39 39 39 39 38 37 38 39 39 39 40 40 39 38 39 36 35 34 34 33 33 33 33 31 29 28 25 24 25 24 23 24 25 26 24 26 26 27 28 28
37 37 38 39 39 39 38 37 38 39 39 39 38 37 33 31 30 31 31 31 32 31 29 29 30 30 30 28 24 22 22 22 23 23 24 22 22 24 25 28 29 28 28
36 37 38 38 38 38 38 39 38 37 37 33 30 29 28 27 27 22 24 28 28 28 28 28 27 28 27 23 21 21 21 22 21 21 20 21 23 24 23 22 22 23 25
37 37 38 38 37 37 37 36 35 32 31 30 28 27 27 24 23 21 24 25 22 25 26 25 25 24 23 20 18 18 19 19 19 19 20 20 21 19 19 19 19 20 21
37 37 38 37 35 35 33 31 31 30 28 26 26 29 28 25 22 22 21 26 23 22 21 20 22 23 19 16 17 17 18 18 20 19 18 16 16 17 17 16 17 17 18

GFSMW_sfc_dewp_045.txt.gz
Dewpoint
51 49 49 50 50 50 51 51 50 51 48 49 48 47 49 50 53 55 59 56 56 59 60 59 56 54 53 51 49 46 40 39 42 40 42 42 40 37 37 38 36 36 36
51 48 48 49 49 49 50 50 49 49 49 50 49 50 51 53 53 58 59 58 58 60 60 58 56 55 54 51 49 45 43 41 43 41 42 40 38 40 38 38 37 35 35
51 49 47 48 49 47 48 49 49 49 50 50 53 54 54 52 53 56 58 58 60 60 59 58 57 56 54 52 48 48 44 41 44 42 41 37 36 38 39 39 38 35 36
48 49 49 50 50 49 48 48 49 49 50 54 54 52 51 49 51 55 58 59 60 59 59 57 57 57 56 52 49 49 47 47 46 45 43 42 38 34 31 37 38 37 36
48 48 49 51 50 49 49 50 51 50 53 55 55 56 51 51 53 55 58 59 59 58 58 57 56 55 54 52 51 50 49 48 46 44 44 43 39 38 36 33 34 38 38
48 47 49 50 51 49 49 50 51 52 53 55 57 57 55 52 56 57 57 57 58 57 58 56 54 54 54 52 52 49 48 48 48 44 43 41 40 39 38 35 35 34 34
46 47 47 48 49 50 50 50 50 51 52 53 56 57 57 56 56 56 57 57 56 56 56 56 54 55 53 52 49 49 49 48 46 44 44 41 39 38 37 35 31 31 31
41 46 47 48 48 49 51 51 51 51 52 54 55 57 57 56 57 57 57 57 57 57 55 55 54 55 53 51 48 50 49 48 47 44 43 40 40 39 37 33 33 31 31
40 41 46 48 49 49 50 52 53 53 54 56 57 57 58 57 57 57 57 58 57 55 55 54 52 51 51 48 48 49 48 46 44 43 41 40 42 39 38 37 35 33 29
40 40 42 47 48 50 51 52 52 54 53 55 58 58 58 58 58 58 57 56 55 53 53 52 51 49 48 47 47 46 46 44 44 42 40 41 42 43 44 42 38 35 33
36 40 45 48 49 55 56 54 54 55 56 56 57 58 59 58 58 57 57 57 53 51 51 50 48 47 46 47 46 46 44 42 42 43 43 44 44 44 43 42 39 35 33
35 39 46 48 50 53 54 53 54 57 57 57 57 60 60 59 58 58 58 57 53 51 50 49 48 47 46 45 45 43 42 43 43 43 43 43 43 42 41 40 37 35 34
29 40 42 44 45 46 52 53 56 56 57 58 60 60 59 59 59 58 56 53 52 51 50 49 48 46 46 44 44 41 42 42 43 43 43 42 41 39 39 37 36 35 35
29 39 43 46 47 49 52 55 57 58 59 60 60 59 57 57 56 55 54 53 52 50 50 48 47 46 44 42 41 42 42 42 42 43 42 42 41 40 38 37 37 36 35
29 34 43 47 50 51 54 57 57 58 60 60 58 55 54 54 53 53 53 52 51 50 47 45 44 42 40 41 42 42 41 40 40 41 41 41 40 39 39 39 38 35 34
25 29 46 50 53 54 56 55 56 56 58 57 56 55 54 53 53 52 51 50 48 45 43 41 41 40 40 39 40 40 40 39 39 39 39 39 38 38 38 38 37 37 35
30 32 43 51 53 54 54 54 54 54 54 54 54 53 53 52 50 46 44 42 41 40 40 40 40 40 40 39 39 38 39 39 39 39 38 38 37 37 35 33 33 32 33
39 42 50 52 53 53 53 53 52 49 50 50 49 49 46 43 41 41 40 39 39 39 37 38 39 39 38 38 38 36 38 38 39 38 37 34 32 32 32 29 27 27 28
44 48 50 51 51 51 50 49 47 46 45 44 44 42 40 39 38 38 38 38 38 38 38 38 37 37 37 37 37 38 38 36 32 32 30 30 29 32 30 26 24 20 17
46 46 46 46 46 45 45 44 43 43 42 42 41 40 39 38 39 39 38 39 38 38 39 39 40 39 38 37 37 35 30 28 26 26 27 29 28 29 28 24 23 21 21
44 44 43 43 42 42 42 40 40 40 40 41 40 41 41 40 40 40 40 40 39 38 38 36 36 33 30 29 29 27 24 25 25 25 24 24 26 24 23 24 24 24 26
41 41 41 40 40 40 39 38 39 39 40 40 40 40 40 39 39 39 39 38 37 35 32 30 29 28 27 27 26 24 23 23 23 23 24 24 22 22 25 26 26 24 24
39 39 39 39 39 39 38 37 38 39 40 39 39 39 39 39 39 36 33 33 33 30 28 29 28 26 25 23 22 21 21 21 22 22 21 21 22 24 24 24 21 22 21
37 38 39 39 39 39 38 39 39 39 38 38 37 35 31 29 25 27 28 26 26 26 26 26 26 26 22 20 19 19 21 21 20 21 20 20 22 22 21 20 20 20 20
38 39 39 38 38 38 38 37 38 37 33 31 29 28 26 23 24 25 23 22 24 26 24 24 25 23 21 19 18 18 20 18 21 17 16 19 20 18 18 18 17 17 17
38 38 38 37 37 36 36 35 34 32 29 26 26 27 26 23 21 22 21 24 23 22 24 25 23 22 20 17 17 17 18 18 20 18 14 11 9 14 15 15 15 14 13

GFSMW_sfc_dewp_048.txt.gz
Dewpoint
49 50 51 51 51 52 52 52 53 52 51 50 49 49 49 50 49 49 53 55 57 59 59 58 58 55 53 52 51 46 41 40 41 40 41 42 41 37 36 37 38 42 46
48 49 50 50 51 51 52 51 51 50 49 48 47 48 48 49 48 48 52 56 56 57 59 59 58 55 53 51 50 45 42 39 42 39 42 39 40 39 38 37 37 36 40
49 48 49 49 50 50 51 51 50 48 49 48 47 47 48 48 47 47 52 56 56 55 59 59 57 55 54 52 52 46 43 43 45 43 42 39 38 38 38 39 38 36 36
50 48 48 48 48 49 50 50 49 49 49 50 48 47 47 47 48 49 52 56 57 58 59 59 57 56 55 53 52 48 45 45 44 44 44 42 38 34 32 37 39 37 35
51 48 47 48 48 48 48 49 49 48 48 49 50 50 52 53 52 52 54 57 58 59 59 58 57 56 57 55 51 49 48 48 48 45 45 43 40 39 36 34 34 37 38
51 50 47 48 48 48 47 47 48 48 48 49 51 53 54 52 52 53 54 55 58 59 58 58 58 57 57 55 52 50 49 49 47 46 45 44 43 40 37 35 35 34 35
46 51 48 48 49 49 46 47 47 48 48 49 51 53 55 54 52 52 53 55 57 57 58 57 57 56 54 53 52 51 49 49 48 48 47 46 45 39 39 37 35 32 32
43 47 49 49 51 50 49 47 48 50 49 50 52 54 54 56 55 53 55 56 56 56 58 57 55 54 54 52 50 50 50 48 48 46 46 45 41 40 38 35 36 32 32
43 47 47 49 50 50 49 48 47 50 50 51 53 54 55 56 55 56 56 57 57 56 55 56 54 53 53 51 48 49 48 48 47 46 44 41 43 41 40 39 37 34 34
42 47 47 48 50 51 50 50 49 48 49 51 52 53 54 55 56 56 56 57 57 55 54 54 53 52 51 50 48 48 48 47 46 44 41 43 44 45 44 44 44 41 37
41 42 47 48 49 50 50 51 52 52 52 54 53 54 55 56 58 57 57 57 56 55 54 53 52 51 50 49 47 47 46 45 43 43 44 44 44 44 44 43 42 40 38
38 41 42 46 49 50 50 50 52 53 53 54 55 55 58 58 58 58 58 57 56 54 54 52 50 50 48 48 46 46 45 43 43 44 44 43 44 43 43 41 40 39 37
36 42 44 45 47 49 50 50 51 52 54 55 55 57 58 58 58 59 60 60 55 53 53 52 50 48 48 46 46 45 44 43 43 43 43 43 43 40 40 38 37 36 36
30 41 43 46 47 47 50 52 53 54 54 56 57 57 58 58 59 59 59 57 54 52 51 51 50 49 47 46 44 43 43 43 43 43 43 42 41 41 39 38 36 37 34
29 35 43 44 47 49 52 50 53 53 56 57 57 58 59 59 58 57 54 53 52 52 50 49 48 46 45 43 42 42 42 42 42 42 41 42 41 40 38 37 36 35 34
30 31 42 47 50 53 56 56 56 55 57 57 57 59 57 57 55 54 53 52 50 49 47 47 44 42 41 39 40 41 41 41 40 40 41 40 40 39 37 34 34 33 30
27 29 41 48 52 55 55 55 56 58 58 58 57 55 55 55 53 52 50 48 47 46 43 42 42 41 41 39 39 38 39 39 39 39 39 38 36 33 32 31 30 30 30
31 31 46 51 54 54 54 53 54 55 55 55 54 53 52 50 49 48 45 44 44 44 42 41 41 41 40 38 38 37 38 38 38 37 34 32 29 31 28 26 24 22 21
34 39 49 53 53 53 53 51 51 52 51 50 49 48 47 45 44 43 43 41 40 39 38 38 38 38 38 37 36 37 38 34 32 29 29 28 27 28 27 24 22 21 22
46 50 51 51 52 50 49 47 46 46 45 44 45 44 42 41 39 39 38 38 38 37 37 37 36 36 37 37 37 35 32 28 25 25 25 26 26 25 23 22 22 23 24
47 48 49 50 48 46 46 44 44 43 42 41 40 39 39 39 38 38 37 37 37 37 37 35 33 32 33 32 32 30 25 25 25 23 23 23 22 21 24 26 25 24 21
44 45 45 44 43 43 43 41 41 41 41 41 40 40 39 39 39 38 38 38 38 35 33 30 27 26 26 27 26 26 24 22 23 22 23 22 21 23 25 24 21 20 22
42 42 42 40 40 40 41 39 39 40 40 40 39 39 39 39 39 38 37 37 35 32 30 28 25 23 23 22 23 22 22 21 21 22 19 20 22 23 24 19 18 20 20
39 39 39 39 38 38 39 39 40 40 39 39 38 38 35 30 30 29 31 31 29 29 29 27 25 22 21 20 20 20 21 21 20 21 20 21 22 22 21 21 19 18 17
39 39 39 38 38 38 38 39 39 38 36 33 29 26 27 26 22 22 23 25 26 26 27 27 26 22 21 19 19 19 20 21 21 20 18 19 19 17 17 17 16 16 15
39 38 38 37 37 37 37 35 34 32 29 26 25 24 25 23 18 19 21 25 26 27 26 25 24 23 21 18 17 17 17 18 20 19 16 12 9 13 15 15 14 13 12

GFSMW_sfc_dewp_054.txt.gz
Dewpoint
50 50 51 52 52 53 54 54 56 56 56 56 56 55 54 52 51 53 56 57 57 59 57 57 56 55 53 53 50 47 45 43 42 39 40 40 39 39 38 41 45 47 47
48 50 50 51 52 52 53 54 55 56 56 56 55 55 55 54 54 51 53 55 56 58 58 57 56 55 54 52 50 47 44 44 42 39 40 38 40 42 41 38 41 43 45
48 49 49 50 51 52 52 54 54 54 54 54 55 55 54 53 53 51 49 52 54 54 56 57 56 55 53 52 51 48 45 43 43 43 41 38 38 39 40 40 38 40 40
49 49 49 49 49 50 51 52 52 51 52 53 53 53 53 50 51 50 48 49 53 55 55 56 57 56 55 53 52 51 48 46 45 46 45 43 42 38 37 38 40 39 38
50 49 49 49 49 50 51 50 51 51 49 49 50 52 52 52 52 49 49 50 51 54 55 54 55 55 55 54 53 52 50 50 49 47 46 44 42 42 41 39 39 39 40
50 50 49 49 49 50 51 50 50 50 49 49 49 49 49 48 49 49 49 49 51 52 54 55 55 55 55 54 53 52 52 51 50 50 49 45 43 42 40 39 39 37 38
49 50 48 48 48 49 49 50 50 50 50 49 49 48 48 48 48 48 49 50 50 51 51 53 54 54 55 55 55 54 53 52 52 51 49 48 46 45 42 41 39 38 37
48 50 49 48 48 48 49 50 50 50 50 49 49 49 48 48 48 49 49 51 51 51 52 54 55 54 55 55 56 56 54 54 53 52 50 47 47 44 41 41 40 35 34
46 49 50 48 48 48 48 49 49 49 49 49 49 49 49 49 48 49 52 52 52 53 52 54 56 56 56 56 56 56 56 54 53 52 49 47 47 45 43 40 39 39 36
42 47 50 49 48 48 48 49 48 48 49 49 49 49 49 49 50 51 52 53 53 53 52 53 54 55 56 56 56 56 54 52 50 50 48 46 45 44 42 41 42 41 40
39 41 48 50 49 49 49 49 48 49 48 49 49 48 48 49 50 51 52 54 54 54 54 54 54 55 55 55 54 54 52 51 49 48 47 46 44 43 44 44 43 42 41
43 40 41 48 49 48 49 49 48 47 47 49 49 49 49 49 50 51 53 54 55 56 56 56 56 55 54 53 53 52 50 50 48 47 46 44 44 44 44 43 42 41 40
37 43 43 45 49 49 49 49 49 47 48 49 49 50 50 50 51 52 53 54 55 55 56 56 55 56 55 53 52 52 51 49 47 46 45 44 44 43 43 42 40 38 37
30 39 43 45 47 49 50 51 51 51 49 48 48 49 51 51 51 52 53 54 55 55 56 56 56 55 54 53 52 51 50 48 46 46 45 44 43 43 41 39 39 38 36
30 32 40 43 46 48 49 50 51 51 51 50 49 49 50 51 52 53 54 55 56 56 56 56 56 54 53 52 51 50 48 47 45 45 44 44 43 41 40 39 37 36 35
31 31 33 41 43 46 48 49 50 51 52 51 50 50 50 51 51 53 54 55 56 57 57 56 55 52 51 45 44 47 46 45 45 43 43 42 41 39 38 37 35 33 31
32 33 32 33 42 44 47 49 50 50 51 52 52 52 52 52 53 54 56 56 56 56 54 52 52 51 51 44 41 42 44 43 43 42 41 40 36 35 33 32 30 28 28
33 33 34 33 38 44 47 48 49 51 51 51 51 52 53 54 54 56 56 56 53 51 50 47 48 46 42 40 39 40 42 41 41 40 38 34 31 30 28 25 22 20 19
33 34 34 34 37 45 48 50 52 51 52 53 53 53 54 54 53 52 51 49 47 46 45 44 44 43 40 39 38 39 38 35 33 32 32 30 29 30 29 21 19 20 23
32 33 35 43 46 50 52 52 53 53 53 53 52 52 52 51 49 47 45 44 45 42 41 40 41 39 38 37 37 36 33 30 28 27 28 29 26 25 24 23 23 23 22
39 40 45 47 49 50 51 52 53 52 49 48 48 49 48 46 44 42 42 42 40 37 35 34 34 36 37 36 35 34 32 29 27 24 23 22 23 24 27 26 24 21 18
46 48 47 47 47 48 48 48 46 46 45 45 44 42 41 40 40 40 39 37 35 33 31 30 29 29 30 31 32 31 29 28 25 23 21 23 24 26 25 22 21 20 19
44 45 44 43 44 45 46 43 41 42 43 40 40 39 38 38 39 38 36 35 34 32 31 30 27 25 26 26 27 27 26 25 22 23 22 23 24 23 21 20 20 19 17
43 43 42 41 40 41 41 42 42 41 41 38 36 35 34 33 33 33 34 34 33 31 29 27 25 23 22 22 22 22 21 22 22 22 22 24 23 21 21 19 18 15 15
42 41 39 39 38 40 40 41 41 38 34 33 31 30 30 29 28 28 29 30 31 32 30 28 25 23 21 20 21 21 21 23 23 22 22 20 19 17 17 16 15 14 13
36 35 34 32 31 31 32 34 35 34 33 30 29 28 28 27 26 26 26 30 30 29 28 26 25 24 23 22 23 23 23 23 23 21 18 15 16 16 15 14 13 13 12

GFSMW_sfc_dewp_060.txt.gz
Dewpoint
48 49 51 53 55 56 57 57 58 58 58 56 56 57 57 56 58 58 58 57 53 55 55 53 54 54 52 52 54 52 51 47 45 40 41 41 45 45 43 44 43 45 46
48 49 50 52 54 54 56 56 57 57 57 57 56 57 57 58 57 57 56 57 57 55 56 57 54 54 53 55 55 55 51 48 47 45 46 44 43 42 43 42 43 47 45
48 49 50 51 53 53 54 55 56 57 57 57 57 57 58 57 57 57 53 54 56 56 55 57 55 56 55 55 57 56 54 51 51 51 49 47 45 47 46 46 44 45 46
47 48 50 50 52 53 54 54 55 57 57 58 56 57 54 53 54 55 56 54 57 57 55 56 56 58 57 56 57 57 56 55 53 52 50 52 51 46 47 45 47 45 45
47 48 50 50 50 53 54 54 54 56 57 57 57 56 55 53 53 54 56 56 57 57 57 57 58 59 60 60 59 59 58 56 56 53 51 50 50 49 48 49 49 47 45
45 47 50 51 50 52 53 53 53 54 57 57 57 57 55 54 54 55 55 55 55 57 58 57 59 59 58 57 57 58 59 58 57 55 54 52 50 48 48 48 50 51 47
44 47 49 50 50 51 52 53 53 53 55 57 57 57 56 55 54 54 54 54 55 55 56 57 58 56 56 56 55 57 58 59 57 57 55 54 53 52 51 50 49 50 50
44 46 48 50 50 51 51 52 53 52 54 56 56 57 57 55 53 54 54 53 53 53 55 55 55 54 54 55 56 56 55 57 57 58 58 56 56 55 54 52 49 47 49
42 45 48 50 51 51 51 52 51 52 54 54 55 56 56 56 55 54 54 54 55 52 53 54 55 55 54 55 55 56 55 57 58 57 57 57 57 57 56 54 52 49 47
40 45 47 50 51 52 51 52 51 51 53 54 56 55 56 55 55 55 55 54 55 54 53 53 54 54 54 54 54 56 56 56 57 56 56 57 56 58 57 54 52 51 50
40 45 46 49 51 52 51 51 51 50 52 54 54 54 54 54 55 54 55 55 56 55 54 54 53 52 53 53 54 54 54 54 55 57 58 57 56 56 55 54 52 50 48
36 42 47 49 50 51 51 51 51 50 50 52 54 54 55 54 54 55 54 57 56 56 55 55 55 54 54 55 54 55 53 54 55 56 57 56 55 56 54 51 49 49 49
33 40 43 47 49 50 51 51 51 50 50 50 52 54 55 55 55 55 55 55 55 55 54 54 55 55 55 54 55 54 55 56 56 56 56 56 54 53 52 50 50 49 45
33 34 40 43 47 49 50 50 51 52 51 50 51 52 54 55 55 55 55 55 54 53 53 54 54 55 54 53 54 54 56 56 56 54 55 55 54 53 52 50 49 46 43
30 33 34 37 42 46 49 50 51 52 52 51 50 52 54 54 53 54 54 54 54 54 53 54 54 55 54 54 56 55 56 55 55 56 54 54 52 49 50 48 46 44 41
32 32 32 33 35 40 45 49 50 51 52 52 51 51 52 52 53 52 53 53 53 53 53 53 53 54 54 48 46 52 57 56 55 54 53 53 47 46 43 42 41 42 41
36 35 33 34 36 38 41 45 49 51 52 52 51 51 51 51 52 52 52 52 53 54 53 54 54 55 56 47 45 45 56 55 55 54 52 48 46 44 41 37 35 34 35
41 41 41 40 36 37 38 44 45 49 51 51 51 51 51 51 52 52 52 53 54 54 55 55 55 55 55 46 45 44 53 55 53 50 47 45 41 40 37 34 31 31 31
42 42 43 42 41 39 38 38 41 44 48 50 51 51 52 51 51 52 53 53 54 55 56 55 56 56 56 44 43 43 45 42 40 41 40 39 36 35 35 30 29 27 28
43 45 47 48 47 44 43 40 41 43 45 48 49 51 52 52 52 53 54 55 55 54 49 43 43 40 43 39 41 43 40 36 34 34 35 34 34 33 33 32 31 28 26
43 46 48 48 48 50 51 47 44 45 47 50 50 51 52 53 54 54 52 48 43 39 37 35 36 37 38 37 37 37 35 33 32 31 31 32 33 32 32 31 30 27 23
42 44 45 46 45 46 51 50 50 51 52 51 49 48 47 46 46 44 41 40 38 35 33 32 31 32 33 34 34 34 33 32 30 29 29 30 31 31 29 26 24 23 23
37 40 41 40 40 41 44 44 44 44 43 42 40 39 39 39 40 40 39 38 36 34 32 30 29 28 29 30 31 31 30 29 29 29 30 30 29 27 24 23 23 22 22
33 34 35 33 33 34 36 38 41 40 40 38 35 34 35 33 34 34 34 34 33 32 30 29 27 26 26 26 27 28 28 29 29 29 29 28 26 25 23 22 23 23 20
31 31 31 30 30 31 32 34 36 36 34 33 32 32 31 29 28 29 30 30 32 32 29 28 27 25 24 26 28 27 26 27 27 27 27 26 25 24 23 23 21 21 18
28 28 28 28 29 29 30 31 32 33 32 31 31 31 30 29 27 26 26 29 30 29 29 29 27 28 28 29 29 28 27 27 28 27 26 26 26 25 23 23 21 20 17

GFSMW_sfc_dewp_066.txt.gz
Dewpoint
44 48 49 52 54 57 57 59 59 58 58 58 58 57 57 58 58 57 57 57 56 56 56 56 57 54 53 53 53 53 51 51 51 48 49 48 50 51 50 50 51 51 52
44 48 49 51 54 57 59 59 59 57 57 57 57 57 57 57 56 58 56 57 56 54 55 56 56 56 55 55 54 51 50 50 49 46 46 44 45 47 49 48 49 49 49
43 47 48 50 54 56 57 58 58 57 56 58 58 58 57 57 56 57 57 55 55 53 53 56 55 55 57 56 55 55 52 51 50 49 46 44 43 45 47 48 48 48 50
40 47 48 49 53 55 58 58 58 57 56 57 57 56 55 54 53 55 56 55 56 53 52 55 56 55 57 57 58 57 56 55 50 50 50 52 53 50 47 47 48 50 49
37 46 48 49 51 54 56 57 57 57 56 56 56 55 54 55 53 54 56 56 56 56 57 56 59 59 57 58 58 57 56 57 56 53 53 53 53 53 52 48 47 48 49
35 42 48 50 50 53 56 56 57 57 57 56 56 55 54 54 53 53 54 55 54 54 56 56 58 57 58 58 58 57 58 58 57 57 56 55 52 52 52 50 50 48 50
37 41 46 48 49 52 55 55 56 56 57 57 56 56 54 54 54 52 53 53 53 52 52 57 58 56 57 58 58 57 57 57 57 56 55 55 55 55 53 52 50 51 53
40 40 45 48 49 51 54 54 53 55 56 57 56 55 55 54 54 55 52 53 53 52 52 56 57 57 56 57 57 56 56 56 57 56 56 56 56 56 55 53 52 50 51
37 39 43 49 50 50 53 54 53 53 56 57 57 56 56 54 54 55 55 54 53 53 54 57 57 58 58 56 54 54 54 55 55 55 56 55 56 55 55 55 55 52 49
34 39 42 49 50 50 52 55 53 52 55 56 56 56 56 56 55 54 54 54 54 53 52 55 57 57 57 56 55 55 53 53 54 54 54 55 54 55 56 54 55 55 53
38 39 41 48 50 51 50 53 53 52 53 56 56 55 56 56 56 55 55 54 54 54 53 53 55 56 56 56 55 54 53 53 52 52 53 54 54 55 55 56 55 54 54
36 39 43 47 50 51 50 51 52 51 53 54 56 56 55 56 57 57 56 56 55 55 54 54 54 55 55 55 55 55 53 53 52 52 52 52 53 54 55 55 55 55 55
35 39 44 45 48 50 51 51 52 51 51 53 54 56 56 55 56 57 57 56 56 56 55 54 54 54 55 54 54 53 52 51 51 52 52 53 53 54 54 54 55 56 56
36 38 40 45 47 49 51 52 53 53 52 50 53 55 56 56 56 56 57 57 57 56 55 55 54 54 53 53 53 53 52 52 52 52 53 53 53 53 53 54 55 56 55
39 40 40 41 41 47 51 50 53 53 53 51 50 52 55 57 57 57 57 57 57 56 56 55 55 55 54 53 53 52 52 52 52 53 53 53 52 49 50 53 55 55 54
40 41 42 43 43 44 44 44 50 52 54 53 52 51 53 55 55 56 57 57 57 56 56 55 55 55 53 48 45 49 53 53 53 53 54 54 49 48 45 45 46 52 53
41 43 44 46 48 48 49 48 47 44 52 53 53 53 53 52 54 55 55 55 55 56 55 55 55 55 55 46 44 43 53 54 54 54 54 54 53 49 52 45 42 38 37
41 42 44 47 46 45 46 47 48 49 47 47 52 53 53 53 53 54 54 55 55 55 55 55 55 55 55 45 44 41 50 53 53 53 53 53 53 53 50 39 33 33 33
41 42 44 44 43 41 43 46 49 50 49 50 51 51 53 53 53 53 53 54 55 55 55 55 55 55 54 39 41 43 51 52 43 38 38 40 39 38 38 34 31 30 30
38 39 41 40 38 37 39 43 43 43 43 45 48 48 50 52 52 53 54 55 55 54 53 43 40 37 39 37 40 43 44 37 34 33 34 35 35 35 35 33 30 28 27
36 37 39 37 34 34 36 37 38 38 40 41 43 43 43 46 49 52 51 52 44 39 36 34 34 34 35 36 37 38 36 33 32 31 31 32 34 34 33 31 29 27 28
34 34 35 35 33 32 33 34 35 36 36 35 35 35 36 37 42 43 42 41 39 36 33 31 30 31 32 34 34 34 33 32 30 29 30 31 31 31 30 29 30 29 29
32 32 32 32 31 30 31 32 34 34 33 32 31 31 30 31 33 36 37 36 34 33 31 30 28 28 30 31 32 33 32 31 30 29 29 29 29 28 28 30 30 29 29
29 28 29 27 28 28 29 31 33 32 31 30 30 30 29 28 29 29 29 31 32 30 28 27 26 26 27 28 28 28 28 27 26 26 26 26 27 27 27 25 25 25 26
25 25 25 25 25 26 27 29 30 32 30 29 28 28 28 28 27 27 28 27 28 29 27 27 27 26 26 28 29 28 27 27 27 28 28 27 26 25 25 25 25 25 24
23 23 23 24 26 27 27 29 30 31 30 29 28 28 27 27 27 25 25 30 30 30 30 30 28 28 30 30 30 31 31 31 31 28 27 26 25 25 24 23 22 22 19

GFSMW_sfc_dewp_072.txt.gz
Dewpoint
47 51 55 56 58 58 57 58 59 58 58 58 58 58 58 59 59 60 60 60 61 59 55 55 58 55 55 54 53 53 50 50 51 49 49 51 53 53 53 53 54 54 55
48 49 54 55 58 57 57 57 58 58 58 57 57 57 58 59 59 60 60 60 59 59 57 55 58 57 56 56 55 52 51 50 50 49 48 46 46 50 52 53 53 54 54
48 48 52 54 57 57 57 58 58 58 58 58 57 56 57 58 58 58 59 59 59 58 59 57 57 57 57 55 54 51 50 48 49 49 48 44 44 45 47 49 53 53 54
48 47 50 53 57 57 57 57 57 57 57 58 56 55 55 55 56 57 58 58 59 58 57 58 57 56 58 57 56 54 50 50 48 48 48 47 48 46 44 46 48 49 51
47 47 48 53 56 58 57 57 57 57 57 57 56 56 55 55 56 57 57 57 58 57 56 57 57 56 57 57 56 55 53 51 50 47 49 49 51 51 48 44 45 47 47
46 47 48 53 56 57 57 56 55 56 56 57 56 55 55 54 54 55 55 56 56 56 55 56 56 56 56 57 56 56 55 53 51 50 50 50 50 50 49 47 46 45 46
46 46 48 51 56 56 56 55 55 55 56 56 56 55 54 54 53 54 54 54 54 55 53 54 56 56 56 57 56 56 56 55 54 53 53 55 52 52 51 50 49 48 48
46 46 49 50 55 56 55 55 54 54 55 56 56 55 54 53 53 54 54 53 54 54 54 55 55 57 55 55 57 56 55 55 55 55 55 55 56 55 55 52 50 48 48
46 46 48 49 54 55 55 55 54 54 54 55 56 56 55 54 53 52 54 54 54 54 54 55 56 56 56 56 56 55 55 56 55 55 55 55 56 56 56 55 54 51 48
46 47 47 49 53 55 56 56 55 54 55 55 55 55 55 55 54 53 52 53 54 54 54 53 55 56 56 55 55 55 55 55 55 55 54 54 54 55 55 55 55 54 52
39 47 48 48 51 53 54 55 55 55 55 54 54 55 55 54 55 54 53 52 53 53 53 53 53 55 56 56 55 54 54 54 54 54 53 53 52 52 53 54 54 53 53
45 47 48 49 52 53 53 53 55 55 55 55 55 55 55 55 54 54 54 54 52 52 53 53 53 52 53 54 55 55 54 54 53 53 53 53 53 53 52 52 53 53 53
48 49 50 50 50 51 53 53 53 53 56 56 55 55 55 55 55 55 54 55 55 53 52 52 52 52 53 53 54 54 54 53 53 53 53 52 52 52 52 52 52 53 53
48 47 47 49 49 51 51 51 52 53 54 55 55 55 54 54 55 55 55 55 55 55 54 54 53 53 52 52 53 54 53 53 53 53 53 52 52 51 51 52 52 52 52
43 43 44 44 45 46 47 49 50 51 54 55 55 55 55 54 55 55 55 55 56 55 55 54 54 54 53 52 52 52 53 53 53 53 53 53 52 48 49 51 51 51 51
42 40 40 39 39 40 43 45 45 46 47 48 51 52 55 55 54 55 55 55 55 55 55 55 54 54 53 48 45 49 53 53 54 53 53 54 49 48 44 44 44 49 51
39 37 37 36 36 36 39 40 41 42 42 43 44 44 46 47 52 55 55 54 54 55 55 55 54 54 54 46 44 43 51 53 54 54 54 54 54 49 52 46 42 42 39
36 35 34 33 34 35 37 38 37 38 38 39 39 40 41 42 44 46 49 55 55 55 55 56 56 55 55 46 45 43 51 53 53 54 54 54 53 53 51 51 49 38 35
34 33 32 31 32 33 35 35 35 34 34 34 35 35 37 38 40 41 43 45 47 55 55 56 56 56 56 38 40 43 52 52 53 52 43 44 47 47 45 49 39 32 31
32 30 30 29 30 31 33 33 32 32 31 31 30 32 33 35 35 38 39 40 43 45 44 36 35 34 36 35 36 38 48 50 40 34 34 35 36 36 37 38 33 29 28
30 29 28 28 28 30 32 32 31 30 30 29 28 28 30 30 31 33 35 36 35 33 32 30 30 30 31 32 34 35 36 35 33 32 31 32 33 33 32 32 30 30 29
27 27 27 27 28 29 30 30 30 29 29 28 27 27 28 28 28 30 32 32 31 30 30 29 28 29 29 31 31 32 32 32 30 30 30 31 32 31 30 30 30 30 29
25 25 26 26 27 28 30 29 29 29 28 27 26 26 26 26 27 27 28 29 29 29 28 27 27 27 28 28 30 30 29 29 27 28 28 28 28 28 27 28 27 27 26
23 25 25 25 26 27 28 30 30 28 27 26 26 25 24 25 26 26 26 27 27 27 27 27 27 27 27 27 28 28 28 28 27 26 26 25 25 23 23 23 24 24 24
23 23 24 24 25 26 26 27 29 28 27 27 26 25 24 23 24 26 26 26 28 28 26 27 28 28 27 29 31 30 28 28 27 26 25 23 22 20 20 20 21 21 21
21 20 21 21 23 24 24 25 27 28 27 25 24 24 23 23 22 22 23 27 27 28 29 29 28 28 29 29 28 28 27 27 26 22 21 19 19 18 18 18 18 18 18

GFSMW_sfc_dewp_075.txt.gz
Dewpoint
43 51 56 57 58 58 58 58 57 57 58 59 59 57 58 59 60 61 62 60 59 57 54 55 54 53 49 51 52 52 49 50 51 51 51 51 52 53 53 54 54 54 54
48 54 55 57 57 58 58 57 57 57 58 58 58 58 58 59 60 60 60 62 60 58 54 55 53 52 50 53 53 52 51 50 51 50 50 48 49 52 53 53 53 53 54
47 53 54 56 57 56 56 57 56 57 57 57 57 57 58 58 58 59 59 60 61 59 56 55 54 53 52 54 54 52 51 49 51 50 49 46 47 49 50 52 53 53 54
47 51 53 55 56 56 57 57 57 57 57 57 56 56 55 56 56 58 59 59 60 60 58 57 57 56 55 55 55 53 51 50 49 48 48 48 47 49 45 48 52 53 53
47 48 52 54 56 56 56 57 56 56 56 56 56 56 55 55 56 57 58 58 58 59 59 58 58 57 58 56 56 54 52 52 52 48 48 49 51 49 47 45 45 48 51
45 47 51 54 56 56 56 56 55 55 56 56 55 55 54 55 54 56 56 57 58 57 58 59 58 57 58 56 56 56 54 52 52 50 49 49 50 50 49 47 46 45 46
44 47 50 54 55 55 55 55 55 54 55 56 55 54 54 54 54 56 56 56 56 57 56 57 58 57 57 57 57 56 56 55 54 52 51 51 51 52 51 50 49 48 48
43 46 49 53 55 55 55 55 55 54 55 56 55 54 54 55 54 55 55 56 56 56 56 56 57 57 57 57 57 57 56 56 55 54 53 54 52 54 53 51 49 47 48
43 46 49 53 55 55 55 55 54 54 54 54 55 55 54 54 53 54 54 55 55 55 55 54 55 56 56 56 57 56 55 56 56 55 54 53 54 55 55 54 53 51 48
46 47 49 53 55 55 55 55 54 54 54 54 54 54 54 54 53 53 53 54 54 54 54 54 55 55 56 56 56 55 55 55 55 54 54 54 54 55 56 55 55 54 52
46 47 48 52 55 55 55 54 54 54 53 53 54 54 54 55 54 53 52 53 54 54 54 54 54 55 55 55 54 54 54 55 54 54 54 53 54 53 54 54 54 53 53
48 49 51 52 53 53 55 54 54 54 53 54 54 53 55 55 55 54 53 52 53 54 54 54 54 54 55 55 54 54 54 54 53 54 54 54 53 53 52 53 52 52 52
46 47 49 49 51 53 54 55 55 55 55 55 54 54 54 54 54 54 55 54 53 52 53 53 53 53 53 54 55 55 54 54 54 54 54 53 53 53 52 52 52 52 52
43 43 43 45 47 50 51 51 52 54 56 56 55 54 54 54 54 54 54 54 55 54 53 53 53 53 52 52 52 53 54 54 54 54 54 53 53 52 52 52 52 52 52
41 41 41 41 42 45 45 46 48 47 49 55 55 54 54 54 54 54 54 54 54 55 55 54 53 53 53 52 52 52 52 52 53 53 53 53 52 49 49 51 51 51 51
37 36 37 37 37 38 40 41 41 42 44 44 44 44 46 50 55 54 54 55 55 55 54 54 54 54 53 47 45 49 52 52 52 52 52 53 48 48 45 44 44 49 51
34 34 34 34 35 36 37 36 36 38 39 39 40 40 42 43 44 45 49 54 55 55 55 55 55 54 54 46 44 44 52 52 52 52 53 53 53 49 52 46 42 43 42
33 32 32 32 33 34 35 34 33 33 34 34 34 36 37 39 40 42 43 43 45 48 54 55 55 55 54 37 40 43 51 53 53 53 53 54 54 54 53 53 52 50 47
32 31 31 31 31 33 34 32 31 30 30 30 31 32 34 35 36 37 38 39 42 41 40 37 36 39 36 34 35 37 48 52 53 53 45 39 45 43 42 51 51 40 32
29 29 29 29 30 31 33 30 29 28 28 28 28 30 30 31 32 34 35 36 36 33 31 30 30 31 31 34 35 36 40 44 45 35 34 34 34 35 36 38 42 32 28
28 28 28 28 29 30 31 29 28 27 27 27 27 28 28 29 30 31 32 33 32 31 30 29 29 29 31 31 33 34 34 33 32 31 30 31 32 32 32 32 31 29 29
26 27 27 27 28 30 29 28 28 27 26 26 26 26 27 27 28 29 30 30 30 29 29 29 28 28 29 31 31 31 31 31 28 27 28 29 30 30 30 29 29 28 27
25 26 26 27 27 28 29 28 27 27 26 25 24 25 26 26 26 27 27 27 27 28 27 27 27 27 28 28 29 29 28 28 27 27 27 27 27 27 26 27 26 26 25
24 25 25 25 25 27 27 29 28 27 26 24 24 24 25 25 25 25 26 25 25 25 25 26 26 27 28 28 28 27 27 26 26 25 24 24 24 22 22 22 22 22 21
22 23 23 23 24 24 24 26 27 25 24 24 23 23 24 24 24 25 25 25 27 26 24 24 25 24 24 26 27 26 25 24 24 22 21 20 20 19 18 18 18 19 18
20 20 20 20 23 23 23 23 25 26 24 23 22 22 22 21 21 21 22 24 24 24 24 25 25 25 25 25 25 25 25 23 22 19 17 16 16 15 15 15 15 16 15